GFSMW_850_dewp_024.txt.gz
Dewpoint
8 7 6 7 8 8 7 7 7 7 7 8 8 9 10 10 8 6 5 6 6 3 -3 -2 -2 -3 -5 -8 -13 -18 -22 -23 -21 -15 -8 -6 -5 -4 -5 -5 -6 -7 -6
9 8 7 8 8 6 7 7 8 6 7 8 8 9 9 7 5 5 4 4 2 -2 -2 -1 -2 -5 -7 -10 -16 -22 -25 -25 -21 -14 -8 -4 -6 -5 -4 -5 -4 -5 -7
9 8 9 8 7 5 4 5 6 8 8 8 9 9 9 6 5 3 1 -1 -2 -1 -1 -1 -3 -5 -9 -13 -19 -22 -20 -23 -17 -12 -8 -4 -4 -4 -4 -4 -5 -6 -7
9 8 8 8 8 7 6 6 6 7 7 8 9 9 9 6 5 3 2 0 -1 -0 -0 -0 -3 -6 -8 -16 -21 -14 -7 -19 -14 -7 -6 -5 -2 -3 -4 -6 -8 -7 -8
8 7 7 6 7 7 7 7 7 8 7 8 9 9 8 6 5 3 2 1 -0 0 0 -0 -5 -6 -11 -20 -4 2 -2 -15 -12 -8 -9 -10 -9 -8 -7 -7 -7 -7 -7
7 7 7 8 8 8 8 8 8 6 7 8 9 8 9 8 5 3 2 1 0 0 0 -1 -5 -7 -16 -11 1 0 -20 -18 -11 -10 -9 -9 -9 -8 -6 -6 -6 -6 -6
5 6 6 7 7 8 7 7 8 7 5 8 8 7 8 8 6 5 6 2 1 1 0 -3 -8 -17 -6 -1 -3 -13 -15 -14 -16 -9 -7 -7 -7 -7 -6 -6 -5 -5 -6
3 4 5 5 6 6 7 8 8 9 6 7 8 8 9 8 7 7 6 5 3 2 -0 -3 1 -5 -1 0 -4 -11 -22 -11 -7 -6 -6 -6 -7 -7 -6 -6 -5 -6 -6
0 2 3 4 5 5 6 6 7 8 8 8 7 7 8 8 8 7 5 5 3 1 -1 -3 -4 -4 -2 1 -17 -11 -10 -8 -7 -8 -8 -6 -7 -7 -7 -6 -6 -5 -5
0 0 2 3 4 4 4 6 6 7 7 8 7 7 9 8 9 8 6 4 2 0 -5 -5 -6 -5 -6 -15 -9 -11 -12 -8 -8 -6 -9 -9 -8 -7 -7 -7 -8 -8 -7
2 2 2 3 3 4 5 5 4 5 6 8 8 7 8 8 9 9 6 4 1 1 -3 -7 -6 -7 -11 -10 -15 -5 -9 -8 -7 -9 -12 -11 -9 -8 -8 -8 -8 -9 -9
1 3 3 3 3 3 4 5 5 6 7 7 7 6 6 8 8 6 5 2 1 -3 -7 -6 -7 -8 -11 -9 -3 -11 -10 -9 -9 -8 -8 -10 -9 -8 -7 -8 -12 -13 -12
1 1 3 4 4 6 6 6 6 6 6 6 6 6 8 8 6 5 4 2 -1 -5 -7 -6 -7 -8 -5 -1 -10 -10 -9 -9 -8 -7 -6 -7 -7 -7 -8 -10 -12 -12 -10
1 1 2 4 7 8 8 7 6 7 8 6 6 6 7 6 5 5 3 -0 -4 -6 -5 -6 -6 -6 -2 -3 -7 -8 -8 -8 -7 -7 -6 -6 -6 -6 -6 -11 -10 -10 -11
3 4 5 6 8 8 9 9 8 8 9 9 8 7 6 5 5 3 0 -3 -3 -6 -4 -5 -5 -1 -1 -4 -7 -7 -6 -7 -7 -7 -6 -6 -6 -5 -6 -9 -9 -10 -11
1 1 1 1 1 1 2 2 2 3 5 7 7 6 5 5 5 2 -3 -3 -5 -5 -5 -5 -2 -2 -0 -4 -7 -7 -7 -7 -7 -7 -6 -6 -6 -5 -7 -8 -9 -10 -11
-1 -2 -2 -2 -2 -3 -3 -3 -1 1 4 5 6 5 5 4 4 -1 -3 -4 -5 -5 -4 -2 -2 -0 -2 -4 -7 -9 -8 -9 -9 -7 -6 -6 -5 -5 -8 -8 -11 -13 -13
-2 -2 -1 -1 -1 -2 -2 -1 0 2 3 4 5 5 3 2 -1 -2 -3 -4 -4 -4 -2 -2 -1 -1 -3 -7 -10 -10 -10 -10 -9 -7 -6 -6 -6 -6 -8 -10 -12 -15 -14
-1 -0 -0 -0 -0 -0 -1 -1 -0 3 4 4 3 2 1 0 -1 -3 -4 -2 -2 -2 -2 -1 -1 -2 -6 -11 -14 -15 -14 -13 -10 -7 -6 -6 -6 -8 -9 -13 -13 -15 -15
-0 -0 0 0 0 0 -0 -0 1 2 2 1 1 0 -1 -2 -2 -2 -1 -1 -1 -1 -1 -1 -2 -5 -12 -16 -16 -15 -13 -11 -7 -7 -6 -6 -6 -8 -11 -14 -14 -14 -16
-0 -0 -0 0 -0 -1 -0 -0 0 0 -0 -1 -1 -2 -2 -2 -1 -1 -1 -1 -1 -1 -2 -5 -8 -12 -14 -15 -15 -13 -10 -8 -7 -6 -6 -6 -7 -9 -11 -12 -14 -15 -15
-1 -1 -1 -2 -2 -2 -1 -1 -2 -3 -3 -3 -3 -2 -1 -0 -1 -1 -2 -4 -6 -9 -11 -12 -15 -16 -14 -13 -12 -12 -10 -7 -6 -6 -6 -6 -7 -9 -9 -10 -11 -13 -15
-2 -3 -3 -3 -4 -3 -3 -3 -3 -2 -1 -1 -3 -7 -10 -12 -11 -12 -13 -14 -14 -13 -13 -13 -14 -14 -14 -12 -10 -10 -9 -9 -6 -7 -7 -6 -6 -7 -7 -8 -9 -9 -12
-4 -4 -4 -4 -3 -3 -3 -4 -4 -7 -10 -13 -14 -14 -15 -15 -14 -13 -13 -12 -12 -11 -11 -10 -10 -10 -11 -11 -10 -8 -7 -7 -8 -7 -7 -7 -6 -7 -6 -7 -7 -8 -8
-4 -3 -2 -3 -4 -6 -8 -10 -11 -12 -13 -13 -13 -13 -12 -12 -12 -11 -10 -10 -9 -7 -7 -6 -6 -5 -6 -6 -5 -6 -6 -6 -6 -5 -6 -7 -6 -6 -6 -6 -7 -7 -8
-2 -3 -4 -6 -7 -9 -10 -10 -10 -11 -12 -12 -11 -11 -10 -10 -10 -11 -13 -16 -19 -22 -23 -23 -13 -12 -8 -9 -8 -6 -5 -5 -5 -5 -6 -6 -7 -8 -8 -6 -6 -7 -7

GFSMW_850_dewp_027.txt.gz
Dewpoint
5 6 4 3 5 6 7 7 7 5 3 4 7 8 9 9 9 9 9 7 8 8 7 4 -2 -2 -2 -5 -8 -14 -19 -20 -17 -14 -11 -10 -7 -5 -5 -5 -5 -5 -5
7 7 6 6 5 6 7 7 7 6 6 7 8 8 9 9 8 10 8 7 7 7 6 1 -1 -2 -3 -6 -11 -19 -21 -16 -11 -11 -11 -3 -5 -6 -5 -6 -5 -4 -5
8 9 8 7 6 6 6 6 6 6 6 7 7 8 8 9 10 9 6 5 6 5 3 -0 -0 -2 -4 -8 -16 -22 -7 -1 -1 -3 -7 -5 -5 -5 -5 -4 -5 -5 -7
8 7 7 7 7 6 7 7 7 7 8 7 8 7 7 7 8 6 5 5 3 1 -1 -0 -0 -2 -6 -11 -19 -4 0 -1 -5 -7 -16 -15 -13 -5 -6 -6 -7 -9 -8
8 7 8 7 7 7 6 6 6 7 8 8 7 7 7 8 8 7 5 3 1 -0 -1 -1 -0 -1 -6 -10 -12 -0 0 1 1 -8 -16 -13 -12 -10 -7 -9 -7 -7 -7
6 7 7 8 8 8 7 7 6 7 7 7 7 7 9 8 9 7 5 3 2 1 -0 -0 0 -2 -6 -9 0 2 1 2 -4 -17 -16 -11 -7 -7 -7 -7 -7 -7 -7
6 7 7 6 7 7 8 7 8 8 8 8 8 6 9 9 9 8 6 5 4 5 1 0 0 -2 -7 -2 -1 -1 2 -2 -20 -10 -8 -10 -9 -8 -8 -6 -7 -7 -7
4 5 5 5 6 6 7 7 7 7 8 9 8 8 9 8 8 8 7 6 5 6 4 2 -0 -6 -6 0 -2 1 -5 -16 -7 -7 -11 -11 -10 -8 -7 -5 -6 -7 -7
-0 2 3 4 4 5 5 6 7 8 7 7 8 7 6 6 7 8 7 5 5 5 3 1 -4 -6 3 -2 -3 -7 -9 -7 -9 -11 -11 -10 -9 -7 -7 -7 -8 -6 -7
-1 -1 0 2 3 4 5 6 6 7 7 7 8 8 7 7 6 8 8 7 6 5 3 -1 -6 3 -5 -6 -4 -8 -8 -3 -12 -10 -8 -11 -10 -9 -9 -8 -7 -7 -6
-0 0 0 1 2 4 5 5 5 5 7 7 7 8 7 7 6 7 9 9 7 6 4 -3 1 -6 -7 -5 -10 -8 -2 -5 -9 -8 -8 -11 -12 -11 -10 -8 -7 -8 -8
-0 0 1 2 3 3 4 4 5 5 6 7 8 7 7 7 6 6 8 8 8 7 3 -2 -4 -8 -4 -9 -8 -3 -7 -11 -9 -9 -8 -7 -7 -8 -8 -8 -7 -8 -10
-0 1 2 3 4 5 4 5 6 6 6 6 7 8 8 7 8 8 8 8 8 5 -3 -6 -8 -7 -7 -5 -2 -0 -6 -7 -9 -8 -7 -7 -6 -6 -7 -7 -7 -7 -11
-0 2 3 5 6 7 7 7 7 7 8 8 8 9 9 9 9 8 7 6 5 2 -3 -8 -8 -7 -5 -1 -1 -0 -5 -8 -8 -7 -7 -7 -7 -6 -6 -6 -6 -7 -11
4 5 5 6 7 8 8 8 8 8 7 7 7 7 8 8 8 7 6 4 2 -1 -7 -7 -5 -6 -2 -1 -1 -2 -5 -6 -6 -6 -6 -7 -7 -6 -6 -6 -5 -7 -9
2 2 1 1 0 -0 -0 -1 -1 -1 -0 2 4 5 6 6 6 5 4 1 -2 -6 -7 -6 -5 -3 -2 -2 -0 -3 -5 -7 -8 -8 -7 -8 -6 -6 -6 -6 -5 -8 -8
-1 -1 -2 -2 -2 -2 -2 -2 -2 -1 -0 1 3 4 5 5 4 3 3 1 -2 -5 -6 -6 -3 -2 -2 -2 -1 -2 -4 -8 -9 -9 -9 -9 -7 -6 -5 -5 -6 -8 -9
-1 -1 -1 -1 -1 -1 -1 -1 -2 -1 1 3 4 4 4 4 3 3 1 -2 -4 -5 -3 -3 -1 -1 -2 -1 -1 -3 -6 -9 -11 -12 -11 -9 -7 -6 -5 -5 -6 -9 -12
-1 -1 -0 -0 -0 -0 -1 -1 -2 0 2 3 3 2 1 1 0 -1 -2 -1 -1 -1 -1 -1 -2 -1 -1 -1 -5 -7 -12 -15 -16 -16 -15 -11 -7 -5 -5 -5 -7 -9 -14
-0 -0 0 0 0 -0 -0 -1 -1 1 1 1 1 0 -0 -1 -1 -1 -1 -1 -1 -1 -1 -1 -1 -1 -3 -6 -8 -11 -12 -14 -15 -14 -12 -9 -7 -6 -5 -5 -8 -10 -14
-0 -0 -0 -0 -0 -1 -1 -1 -0 -1 -1 -1 -1 -1 -2 -2 -2 -1 -1 -1 -1 -1 -2 -3 -6 -8 -9 -11 -13 -11 -11 -12 -12 -11 -8 -7 -7 -6 -6 -6 -8 -10 -12
-1 -1 -1 -1 -2 -2 -2 -2 -2 -2 -3 -3 -2 -2 -1 -1 -1 -3 -5 -8 -9 -11 -13 -14 -14 -14 -14 -13 -13 -11 -10 -10 -9 -10 -9 -7 -6 -6 -5 -6 -7 -9 -10
-2 -2 -2 -3 -3 -3 -3 -3 -2 -2 -1 -2 -5 -9 -12 -14 -15 -14 -14 -14 -13 -12 -11 -11 -11 -11 -10 -10 -10 -9 -8 -7 -7 -7 -7 -8 -6 -6 -6 -6 -6 -8 -8
-3 -3 -3 -3 -3 -3 -3 -4 -5 -8 -11 -13 -13 -14 -13 -13 -12 -12 -11 -11 -11 -11 -11 -13 -14 -15 -15 -10 -7 -7 -7 -7 -5 -5 -5 -5 -6 -6 -6 -6 -6 -6 -7
-3 -4 -3 -3 -5 -7 -8 -10 -10 -11 -12 -13 -13 -13 -13 -13 -14 -15 -19 -24 -29 -30 -29 -25 -23 -23 -25 -19 -16 -15 -14 -10 -7 -7 -7 -6 -6 -5 -7 -7 -6 -6 -6
-3 -3 -4 -5 -7 -8 -9 -10 -11 -12 -13 -13 -14 -17 -21 -25 -28 -31 -33 -34 -33 -32 -31 -29 -26 -22 -21 -23 -22 -20 -18 -16 -14 -17 -10 -8 -7 -7 -6 -6 -6 -6 -6

GFSMW_850_dewp_030.txt.gz
Dewpoint
6 8 9 9 9 10 9 9 10 10 10 9 7 6 9 10 10 9 9 9 9 9 8 7 7 5 1 1 -4 -6 -10 -11 -9 -2 -1 -1 -2 -3 -4 -5 -5 -5 -5
6 7 8 8 8 9 10 10 10 10 10 9 6 7 9 10 9 9 8 9 8 7 7 7 7 2 1 -2 -4 -7 -10 -4 -3 -0 -0 0 -1 -2 -3 -5 -5 -4 -5
6 7 8 8 8 8 9 9 9 10 10 9 7 9 9 9 8 8 8 8 8 7 7 7 6 -0 -1 -2 -4 -6 -12 -1 -0 -1 1 -1 -3 -4 -4 -3 -4 -4 -5
6 7 9 9 9 9 9 9 9 10 10 10 9 9 8 9 8 8 7 8 6 6 7 7 5 -1 -1 -2 -4 -9 -7 -2 2 1 -1 -2 -5 -8 -7 -4 -4 -4 -5
5 6 7 8 10 9 9 10 10 10 10 10 9 9 9 9 10 7 8 7 6 5 6 5 2 -1 -1 -2 -6 -11 -5 2 -0 -0 -1 -3 -5 -5 -6 -6 -9 -8 -7
5 5 6 8 8 10 10 10 10 10 10 10 7 8 9 10 9 8 7 7 6 5 4 2 0 -0 -1 -3 -9 -9 1 0 0 -1 -5 -6 -5 -5 -6 -7 -8 -8 -7
5 6 7 7 8 9 10 10 10 10 10 9 7 7 8 9 6 7 7 8 7 5 3 1 1 -0 0 -1 -9 -2 3 1 -1 -7 -4 -3 -4 -6 -7 -7 -8 -7 -8
4 5 6 7 8 9 10 10 9 10 10 8 6 7 7 7 7 6 8 9 8 6 5 2 5 1 -0 -4 -8 3 2 -1 -4 -5 -2 -4 -4 -5 -6 -6 -7 -7 -9
-0 2 4 6 8 9 10 11 11 10 10 10 9 9 8 7 7 7 8 9 8 6 5 4 6 -0 -2 -10 0 2 -2 -9 -6 -1 -1 -3 -5 -4 -4 -5 -6 -7 -8
2 1 3 4 6 8 9 11 11 10 10 11 10 10 9 9 8 8 8 8 8 8 5 4 3 -0 1 -4 3 -3 -6 -2 -0 -1 -2 -3 -5 -6 -5 -7 -7 -7 -7
2 4 4 4 5 7 9 10 10 9 10 11 11 10 10 10 9 6 7 8 9 9 7 5 5 5 -3 1 -6 -9 -3 -3 -2 -1 -4 -4 -6 -7 -6 -6 -7 -7 -7
2 5 6 6 6 7 8 9 9 9 10 10 11 10 9 9 9 9 9 9 9 8 8 6 6 2 -3 -3 -9 -6 -3 -1 0 -2 -4 -5 -6 -5 -5 -6 -6 -6 -7
1 5 7 7 6 4 7 8 7 9 9 7 7 8 8 9 9 9 9 9 8 8 7 6 4 -2 -3 -9 -5 -6 -2 -0 -0 -3 -4 -5 -5 -5 -5 -5 -6 -7 -7
3 4 7 8 9 9 7 7 7 7 8 8 8 8 9 9 9 9 9 8 8 8 7 5 1 -2 -8 -7 -6 -3 -0 -0 -2 -3 -4 -4 -4 -5 -4 -5 -5 -6 -7
5 6 7 8 9 9 9 9 9 9 8 7 7 7 7 7 7 7 7 7 6 6 5 3 -3 -6 -8 -7 -2 -1 -1 -1 -2 -3 -3 -3 -4 -4 -5 -5 -6 -5 -6
4 5 5 5 4 5 6 3 2 1 1 1 2 3 5 5 5 5 5 5 4 2 -1 -4 -4 -7 -4 -2 -0 -1 -1 -2 -2 -2 -3 -4 -4 -4 -7 -7 -6 -6 -5
2 2 3 3 2 -1 -0 -1 -1 -0 1 2 3 4 4 4 4 4 3 2 -0 -2 -3 -5 -4 -3 -5 -2 -1 -1 -2 -1 -3 -2 -4 -4 -6 -5 -4 -7 -6 -6 -5
0 1 -0 -1 -1 -1 -2 -2 -2 -1 0 2 3 3 3 3 3 3 2 1 0 -1 -2 -3 -5 -6 -1 -1 -1 -1 -2 -2 -3 -4 -6 -6 -6 -6 -5 -5 -5 -5 -5
1 1 0 -0 -0 -1 -1 -1 -2 -1 1 2 2 2 1 1 0 -0 -1 -1 -2 -2 -3 -5 -4 -1 -1 -2 -1 -2 -5 -6 -7 -6 -7 -7 -7 -7 -6 -5 -5 -5 -5
0 0 0 0 -0 -0 -1 -1 -0 -0 0 1 1 0 -0 -1 -1 -1 -1 -1 -1 -1 -2 -1 -1 -1 -2 -4 -7 -9 -10 -8 -6 -6 -6 -7 -9 -12 -8 -6 -5 -5 -5
0 0 0 -0 -0 -0 -0 -1 -0 -0 0 0 -0 -0 -0 -0 -0 -1 -1 -1 -1 -1 -2 -5 -8 -11 -11 -11 -13 -11 -10 -8 -6 -5 -6 -6 -6 -11 -8 -6 -5 -5 -5
-0 -0 -0 -0 -0 -0 -1 -1 -1 -0 -1 -2 -2 -2 -2 -3 -4 -4 -7 -8 -8 -10 -8 -10 -10 -7 -5 -5 -5 -7 -7 -7 -6 -6 -5 -5 -5 -6 -8 -6 -6 -5 -5
-1 -1 -0 -1 -1 -1 -2 -2 -1 -2 -2 -3 -6 -10 -13 -14 -15 -14 -12 -7 -6 -7 -7 -8 -6 -7 -7 -8 -8 -14 -19 -19 -16 -13 -8 -6 -6 -5 -5 -6 -6 -5 -5
-1 -1 -2 -3 -3 -3 -3 -3 -3 -5 -9 -12 -13 -14 -15 -15 -14 -13 -15 -14 -17 -20 -15 -11 -10 -10 -10 -10 -10 -19 -20 -17 -15 -13 -15 -23 -18 -7 -6 -6 -6 -6 -6
-2 -2 -3 -3 -3 -4 -5 -7 -9 -11 -13 -14 -15 -15 -16 -19 -22 -24 -29 -32 -29 -35 -34 -30 -27 -22 -16 -12 -22 -20 -18 -17 -18 -17 -16 -10 -10 -10 -10 -7 -7 -6 -6
-3 -3 -3 -4 -5 -7 -8 -10 -11 -13 -14 -15 -18 -22 -25 -27 -27 -25 -15 -28 -33 -33 -33 -31 -29 -28 -25 -23 -23 -22 -21 -19 -17 -15 -11 -10 -9 -8 -8 -9 -7 -6 -7

GFSMW_850_dewp_033.txt.gz
Dewpoint
4 8 8 7 8 8 8 8 8 8 9 10 8 5 5 7 9 9 10 11 9 9 8 8 7 7 6 4 4 2 -1 -1 -3 0 1 1 1 0 -1 -2 -3 -4 -4
3 6 8 8 8 8 9 8 8 8 8 8 7 5 5 6 9 9 10 10 10 8 7 8 7 7 5 4 3 -0 -0 -1 -0 1 2 2 1 0 -1 -2 -3 -3 -3
4 5 6 7 8 8 8 8 8 9 9 8 7 5 5 7 8 10 10 11 9 9 9 8 7 7 5 5 0 -2 -2 -1 1 1 2 1 0 -2 -1 -1 -2 -3 -2
3 4 5 6 7 8 9 9 8 8 8 8 7 6 7 7 8 10 10 10 8 8 9 8 8 7 5 4 2 -0 -1 -3 1 3 2 2 1 -2 -4 -2 -2 -2 -2
3 3 5 5 6 7 7 8 8 8 8 9 8 7 8 8 8 9 10 9 10 9 9 8 7 6 5 2 0 -1 -3 -6 2 1 2 1 -1 -2 -3 -4 -4 -3 -5
3 2 3 5 6 7 8 8 8 8 8 9 10 9 9 9 8 9 10 10 9 8 8 7 6 6 4 1 0 -1 -7 -4 2 3 2 -1 -3 -3 -3 -3 -4 -6 -7
2 1 2 4 5 7 9 9 9 8 9 9 10 10 10 10 9 10 10 9 8 7 7 8 7 5 4 1 3 1 1 1 3 4 1 -3 -2 -2 -4 -6 -6 -6 -6
1 2 2 2 4 6 8 10 9 9 9 9 10 10 11 10 10 10 9 8 7 8 8 5 8 7 4 3 4 0 2 0 4 1 -1 -1 -1 -3 -4 -4 -5 -5 -6
-1 2 2 3 4 5 7 9 10 9 10 9 10 10 10 10 11 10 9 5 4 6 7 9 7 5 3 4 3 2 -3 3 2 0 0 0 -1 -3 -3 -3 -4 -6 -6
0 -0 1 3 4 5 6 9 10 10 10 10 10 11 11 11 10 10 8 7 7 8 8 8 6 3 3 4 4 3 -1 1 0 -0 -2 -0 -1 -2 -4 -4 -6 -6 -6
0 3 2 2 3 5 7 8 10 11 11 11 11 11 11 11 11 10 9 9 9 9 8 8 6 4 3 4 4 0 0 -1 -1 -1 0 0 -1 -3 -5 -6 -6 -6 -7
-1 3 4 4 4 5 6 8 10 10 11 11 11 11 11 11 11 10 10 10 9 8 8 7 7 6 3 4 2 -1 -0 -2 -1 -3 1 0 -2 -4 -5 -5 -6 -5 -5
-2 2 5 6 6 7 8 8 9 10 10 10 10 11 11 11 10 10 9 8 8 8 7 7 6 5 3 2 -1 -0 -3 -2 -2 0 -0 -1 -3 -3 -5 -5 -4 -4 -5
-2 -0 5 7 7 8 9 9 10 10 10 10 10 10 10 10 10 10 8 8 8 8 7 6 5 3 3 -1 -2 -4 -2 -2 -0 -0 -0 -1 -2 -3 -3 -4 -3 -4 -4
1 2 4 7 8 9 9 10 10 10 9 9 9 10 9 9 8 8 7 6 6 6 6 6 4 3 -1 -2 -3 -2 -1 -2 -1 -1 -1 -1 -2 -2 -3 -3 -4 -4 -4
3 5 7 8 8 9 9 9 8 8 7 7 7 7 7 6 6 6 5 6 5 5 4 3 2 0 -3 -4 -2 -3 -2 -1 -1 -1 -1 -1 -1 -2 -3 -4 -4 -4 -4
3 4 4 5 5 5 5 6 5 5 5 5 5 5 4 4 4 4 4 3 2 0 -1 -1 -2 -4 -4 -3 -4 -2 -2 -1 -1 -1 -2 -2 -3 -4 -5 -6 -6 -6 -6
3 3 3 3 3 3 3 3 3 3 3 3 3 3 3 3 2 2 2 1 0 -1 -2 -3 -4 -2 -1 -1 -2 -2 -1 -2 -2 -2 -2 -4 -5 -6 -6 -7 -6 -6 -5
1 2 2 2 2 2 2 1 1 1 2 2 2 2 2 2 1 1 1 0 0 0 0 -0 -1 -2 -4 -3 -1 -1 -2 -3 -3 -4 -5 -5 -5 -6 -6 -6 -6 -6 -6
1 1 2 2 1 1 1 1 1 1 1 2 2 1 1 1 1 0 0 1 -0 -0 -1 -2 -2 -2 -2 -3 -3 -5 -7 -8 -5 -5 -5 -5 -5 -5 -5 -5 -6 -7 -6
1 1 1 1 1 1 1 1 1 1 1 1 1 1 1 0 0 -1 -1 -2 -3 -4 -4 -4 -3 -3 -4 -4 -4 -6 -7 -8 -9 -9 -8 -6 -6 -5 -5 -5 -4 -5 -7
1 1 1 1 1 1 1 1 1 1 1 -0 -1 -1 -2 -4 -3 -3 -4 -6 -5 -5 -4 -4 -4 -4 -4 -4 -5 -6 -10 -13 -15 -23 -24 -19 -22 -28 -23 -11 -7 -6 -5
0 1 1 1 1 1 1 0 0 -0 -1 -2 -4 -5 -6 -6 -6 -6 -6 -7 -6 -6 -6 -9 -8 -8 -8 -8 -9 -11 -19 -31 -32 -28 -27 -31 -30 -28 -24 -20 -19 -14 -6
0 0 1 0 0 -0 -1 -1 -2 -3 -3 -4 -5 -6 -7 -8 -9 -10 -12 -11 -10 -15 -15 -11 -10 -10 -11 -10 -15 -27 -34 -31 -27 -25 -28 -27 -19 -11 -9 -9 -9 -9 -10
-0 -0 -1 -1 -2 -2 -3 -3 -4 -5 -6 -7 -8 -10 -13 -12 -12 -15 -18 -23 -28 -35 -36 -29 -30 -26 -28 -18 -29 -28 -27 -27 -25 -24 -22 -12 -11 -11 -11 -11 -10 -9 -8
-1 -1 -1 -2 -3 -3 -4 -5 -6 -7 -8 -10 -11 -14 -17 -16 -14 -14 -15 -22 -26 -31 -34 -34 -33 -32 -31 -28 -27 -27 -27 -26 -22 -14 -12 -12 -12 -12 -12 -12 -11 -10 -10

GFSMW_850_dewp_036.txt.gz
Dewpoint
8 8 8 8 6 6 6 5 5 6 2 6 8 9 6 5 3 7 8 8 8 10 9 9 8 8 6 6 5 3 3 -1 -0 -2 -1 1 1 1 0 -1 -2 -3 -4
6 8 8 8 9 6 8 8 6 6 8 8 6 6 6 4 3 7 9 7 9 9 9 8 8 7 7 6 4 4 2 -1 -1 -1 2 2 2 1 1 -1 -2 -3 -4
5 7 8 8 8 8 8 9 9 8 8 8 6 8 6 5 5 8 7 7 10 9 9 8 8 8 6 6 5 4 1 0 -0 -1 2 2 2 1 -0 -1 -2 -3 -4
3 6 7 8 8 8 8 8 8 7 8 8 8 8 6 4 6 8 8 8 9 10 9 9 8 8 7 6 5 5 1 -1 -0 1 3 2 2 1 -2 -1 -1 -2 -3
3 4 5 7 8 8 8 8 8 8 8 7 8 8 6 5 5 8 9 9 10 9 8 9 9 8 8 6 5 4 3 0 -0 2 2 3 3 1 -1 -2 -2 -1 -2
3 3 4 5 7 8 8 9 8 8 8 8 7 8 8 6 7 8 8 9 8 8 9 9 9 8 8 7 6 5 4 1 -1 1 3 3 3 0 -1 -2 -2 -3 -4
2 3 4 5 5 6 7 8 8 9 9 8 9 9 8 8 7 8 9 10 9 8 8 8 8 7 7 7 6 7 3 2 -1 -1 2 3 1 -2 -2 -2 -3 -5 -6
2 3 2 4 5 6 6 6 7 8 8 8 9 9 7 8 10 9 9 9 8 7 4 6 7 8 5 6 7 6 4 3 2 3 4 3 0 -1 -1 -3 -4 -4 -5
2 2 2 2 4 6 6 7 8 8 8 8 8 8 9 10 8 5 9 10 9 8 8 7 7 7 7 7 7 6 3 4 4 3 2 0 -1 -1 -0 -3 -3 -3 -4
-2 -0 2 2 2 4 7 7 8 9 9 9 9 9 10 10 7 6 10 9 7 8 9 8 8 8 8 8 6 4 3 4 2 1 1 0 -1 1 -1 -2 -3 -4 -5
-0 1 1 1 2 3 4 7 9 10 9 9 9 10 9 9 10 9 10 8 9 9 9 9 8 8 7 6 4 3 3 3 1 1 1 1 -1 1 -0 -1 -4 -5 -5
-2 1 3 2 2 3 5 7 8 9 10 10 10 9 10 10 11 9 10 11 10 9 9 8 8 7 7 6 4 2 3 1 1 1 1 -0 -0 -0 -1 -2 -2 -5 -6
-4 1 4 5 4 4 5 6 7 10 10 10 10 10 10 11 8 10 10 10 9 8 8 7 7 7 6 5 3 2 2 1 0 0 -1 -0 -0 -1 -1 -1 -3 -4 -4
-5 -2 4 5 6 7 7 8 9 9 10 10 10 10 11 11 10 10 9 9 8 8 8 7 6 6 5 4 2 2 0 -1 -1 -1 -0 -1 -0 -0 -1 -1 -1 -2 -2
-4 -2 3 6 7 8 9 9 10 10 10 10 10 11 10 10 9 9 8 7 7 7 7 6 6 5 4 3 2 1 0 -1 -1 -1 -1 -1 -1 -1 -1 -1 -2 -2 -2
-2 0 2 7 8 9 9 10 10 10 10 10 9 9 9 8 7 7 6 6 6 5 5 5 4 4 3 2 -0 -1 -2 -2 -1 -1 -2 -2 -1 -1 -3 -2 -2 -3 -4
1 4 6 8 9 9 9 9 9 8 8 7 7 6 6 6 6 5 5 5 4 3 2 1 0 0 -0 -2 -3 -3 -3 -3 -2 -2 -2 -2 -3 -4 -3 -3 -4 -5 -5
3 5 6 6 7 7 6 6 6 5 5 4 4 4 4 3 3 3 3 3 1 0 -1 -2 -3 -4 -4 -3 -2 -1 -2 -2 -2 -2 -3 -4 -3 -4 -5 -5 -5 -6 -6
3 4 4 4 4 4 4 4 3 3 3 3 3 2 2 2 2 1 0 -0 -1 -1 -0 -0 -1 -1 -1 -1 -3 -2 -1 -2 -3 -4 -5 -5 -5 -5 -5 -5 -5 -5 -6
3 3 3 3 2 2 2 2 2 2 1 2 2 2 2 2 2 1 0 0 0 -0 -1 -1 -1 -2 -2 -2 -2 -3 -3 -5 -8 -12 -12 -14 -15 -16 -13 -9 -7 -6 -7
2 2 2 2 2 2 1 1 1 1 1 1 1 1 2 1 -0 -1 -1 -1 -2 -2 -2 -4 -4 -3 -3 -3 -4 -5 -6 -10 -18 -27 -31 -34 -36 -36 -35 -33 -32 -28 -24
2 2 1 2 2 2 1 1 1 1 1 1 1 0 -0 -1 -3 -5 -5 -3 -4 -3 -4 -4 -3 -3 -3 -4 -5 -7 -14 -19 -21 -32 -37 -38 -37 -35 -33 -22 -13 -9 -8
1 1 1 2 2 1 1 1 1 1 -0 -0 -1 -2 -4 -4 -5 -5 -6 -6 -5 -4 -4 -7 -9 -7 -7 -8 -11 -20 -22 -27 -37 -36 -36 -35 -34 -30 -19 -12 -13 -10 -9
1 1 1 1 1 1 1 1 1 0 -1 -3 -4 -5 -6 -7 -8 -9 -9 -8 -10 -12 -15 -17 -15 -13 -15 -21 -28 -29 -36 -36 -36 -34 -34 -31 -23 -11 -12 -15 -15 -14 -13
1 1 1 1 1 0 0 -1 -2 -3 -3 -4 -6 -7 -9 -11 -12 -13 -15 -18 -20 -26 -32 -31 -30 -34 -32 -34 -34 -35 -34 -33 -31 -29 -25 -17 -12 -14 -14 -15 -14 -14 -14
0 1 1 0 -1 -1 -2 -3 -4 -5 -6 -7 -8 -11 -13 -13 -13 -16 -17 -20 -22 -27 -30 -33 -32 -33 -34 -34 -32 -31 -31 -29 -24 -20 -14 -13 -14 -14 -14 -15 -14 -15 -14

GFSMW_850_dewp_042.txt.gz
Dewpoint
9 7 8 8 8 8 8 8 8 7 7 6 6 5 3 1 1 1 1 3 5 4 5 4 3 6 7 7 7 7 6 5 3 2 1 -1 -1 -3 -0 1 1 0 -0
9 7 6 7 7 8 7 8 8 7 6 4 4 3 2 2 2 2 2 2 4 5 8 7 5 7 8 8 7 7 7 4 3 2 1 -1 -1 -2 0 1 1 1 0
7 7 5 6 7 7 7 6 6 6 5 4 4 4 5 4 4 2 2 3 6 6 8 8 7 7 7 8 8 8 7 5 4 3 1 -0 0 1 2 1 1 1 1
7 7 5 3 3 4 6 6 6 7 6 6 6 5 5 4 3 3 3 5 6 6 6 7 8 7 8 8 8 8 7 6 5 4 3 -0 -0 1 1 1 1 1 1
7 7 6 4 1 1 2 3 6 6 3 2 3 3 3 3 3 3 3 4 5 2 7 8 6 6 8 8 8 8 7 6 5 5 5 1 2 1 1 3 3 2 1
7 7 6 6 4 1 1 1 2 2 3 4 3 2 2 2 2 2 2 1 -2 2 5 7 6 7 7 7 7 8 7 7 6 6 6 5 4 2 2 3 3 3 3
7 8 7 7 7 3 2 2 2 2 3 3 4 5 4 5 5 1 3 5 4 4 5 7 8 8 7 7 7 8 8 7 6 7 6 7 6 3 3 3 3 3 3
6 7 6 6 6 6 5 4 2 2 1 2 4 5 5 5 4 4 6 8 6 4 7 9 9 8 7 8 7 8 9 8 7 7 7 7 5 4 3 3 2 2 1
5 5 5 5 5 6 6 6 7 6 4 3 3 4 4 5 6 7 8 9 7 5 6 7 7 8 8 8 7 8 9 8 8 7 7 6 4 3 2 3 2 -0 -0
4 4 5 5 4 5 5 5 6 6 5 7 6 7 7 7 7 7 7 9 7 6 8 8 8 7 6 7 9 9 8 8 8 7 6 4 3 3 2 3 1 1 1
3 4 4 4 4 4 5 5 6 7 8 8 8 7 7 8 8 8 9 9 8 9 8 8 7 7 6 8 9 8 8 8 8 6 5 3 2 3 3 2 2 1 1
-2 -1 2 4 4 4 5 6 6 6 6 7 8 9 10 10 10 10 9 9 10 9 4 6 8 8 9 9 8 8 8 7 7 5 3 2 3 2 2 2 1 0 0
0 0 1 2 3 4 4 5 5 5 6 9 9 8 7 6 9 8 8 8 10 9 5 6 10 9 8 8 8 8 7 6 5 4 3 3 2 2 1 1 -0 -0 -0
0 0 1 1 2 3 3 5 5 5 6 8 8 7 6 3 6 9 9 8 8 9 9 9 9 8 8 7 7 6 5 5 3 3 2 2 1 1 0 -1 -1 -1 -2
-1 -1 -1 -1 2 -0 1 3 4 6 7 7 7 8 7 6 8 9 9 9 9 10 9 9 8 7 6 5 5 5 5 4 3 2 1 1 0 0 -0 -2 -2 -2 -2
-5 -4 1 -0 1 1 1 1 5 7 9 8 9 9 9 9 8 8 10 10 9 9 8 7 7 6 5 6 5 4 4 3 2 1 0 -0 -1 -1 -2 -2 -2 -3 -3
-5 -4 0 1 3 3 2 4 6 8 9 9 10 10 10 9 10 10 9 8 8 7 6 6 5 5 5 5 4 3 2 1 0 -0 -0 -1 -2 -3 -3 -3 -4 -6 -6
-4 -4 -3 0 3 4 6 7 9 10 10 10 10 10 10 10 9 9 8 8 6 4 5 5 5 5 4 3 2 -0 -1 -1 -1 -1 -2 -3 -3 -3 -3 -5 -9 -11 -13
-4 -4 -3 -3 4 7 8 8 9 10 10 10 10 9 9 8 7 6 5 5 5 5 3 2 2 1 0 -1 -2 -2 -2 -2 -2 -2 -3 -3 -4 -5 -7 -11 -22 -34 -38
-4 -2 -1 4 6 7 8 9 9 9 9 9 9 8 7 6 5 4 3 3 3 1 0 -1 -2 -2 -3 -3 -2 -2 -2 -2 -3 -3 -3 -3 -6 -13 -29 -37 -38 -39 -34
-1 1 2 5 8 9 9 9 9 9 8 7 7 5 4 2 1 1 1 1 -0 -1 -1 -1 -2 -1 -1 -1 -1 -2 -2 -3 -3 -4 -6 -14 -29 -37 -38 -39 -35 -25 -26
1 2 4 7 8 9 9 8 7 6 6 4 3 2 1 1 1 0 0 -0 -1 -2 -2 -1 -1 -2 -2 -2 -2 -3 -3 -4 -5 -10 -23 -34 -37 -37 -37 -32 -25 -25 -27
1 3 4 6 6 6 6 5 5 4 3 2 1 1 1 1 1 0 -0 -1 -0 -1 -1 -1 -1 -2 -3 -4 -4 -5 -5 -8 -13 -26 -35 -37 -36 -33 -28 -23 -25 -25 -25
2 3 4 4 4 4 3 3 3 2 2 2 2 1 1 1 1 0 -2 -3 -3 -4 -5 -5 -5 -4 -4 -5 -6 -8 -10 -18 -32 -35 -34 -33 -31 -26 -24 -24 -22 -22 -23
3 3 3 3 2 2 2 2 2 1 2 2 2 1 0 -2 -3 -3 -2 -2 -3 -4 -4 -4 -5 -6 -8 -9 -10 -15 -29 -34 -34 -34 -32 -27 -24 -24 -23 -22 -22 -23 -24
2 2 2 2 2 2 2 2 1 1 1 1 0 -1 -2 -3 -4 -5 -5 -5 -6 -7 -8 -9 -10 -11 -14 -22 -29 -31 -31 -31 -32 -29 -24 -21 -21 -20 -21 -22 -24 -24 -25

GFSMW_850_dewp_045.txt.gz
Dewpoint
8 9 7 9 8 8 8 8 9 8 8 6 6 7 5 8 5 3 4 4 6 5 6 5 3 3 6 5 7 7 7 6 5 3 2 0 -1 -1 -1 -2 -1 1 2
8 8 7 8 8 9 8 8 8 8 7 5 6 6 5 5 4 2 2 2 2 1 3 4 4 4 6 7 7 7 7 5 5 3 2 1 -0 -1 -1 -2 -3 1 1
7 8 7 5 7 7 8 8 8 8 7 6 6 5 6 4 3 2 2 1 2 2 4 5 6 8 7 7 7 7 7 7 7 5 3 1 1 1 -0 -1 -1 1 0
7 7 7 5 3 5 7 7 8 7 7 7 7 6 6 5 2 1 1 1 1 1 3 6 7 8 8 7 8 8 8 8 8 6 4 2 3 2 1 1 0 1 1
6 7 7 5 1 2 4 6 6 7 7 7 6 5 5 5 4 2 1 -0 1 1 3 6 6 6 7 8 8 8 8 8 8 7 6 4 4 4 1 1 1 2 1
7 6 6 7 4 2 2 3 5 5 6 6 5 4 3 3 4 4 4 3 2 2 2 5 5 6 7 7 6 7 7 8 8 7 7 6 5 6 3 3 4 2 2
6 6 7 6 6 3 2 2 2 3 5 5 4 4 4 5 5 4 4 2 2 1 1 4 4 1 7 7 8 7 7 7 7 7 7 6 6 6 3 5 4 3 3
5 6 6 6 5 5 2 1 1 1 3 3 2 2 3 4 4 3 3 1 1 1 0 1 1 2 5 8 7 9 8 7 7 8 7 7 6 6 6 6 4 4 3
5 5 6 5 5 5 4 1 -1 -1 0 0 2 2 2 1 2 2 1 1 2 3 2 6 7 5 8 6 8 9 5 8 8 8 8 7 7 6 7 5 5 4 3
4 4 5 5 5 5 4 5 1 -0 -2 -1 0 1 2 2 2 1 2 4 5 4 5 8 9 8 7 9 9 7 7 7 9 9 8 6 7 7 5 4 4 3 3
3 4 3 4 4 5 5 5 5 4 2 2 1 1 1 3 4 4 5 5 6 7 8 9 9 7 8 9 9 9 8 8 9 8 7 7 7 6 4 3 3 3 2
2 3 4 4 5 5 6 6 5 5 5 5 5 4 4 4 5 6 6 7 8 8 7 8 9 3 6 7 8 9 8 9 8 8 7 7 5 5 3 3 3 2 2
-6 -0 3 3 3 4 5 6 5 5 6 7 7 7 7 7 7 7 5 6 8 9 9 6 5 6 5 6 7 9 9 9 8 7 6 5 4 3 3 3 2 1 1
-4 -3 -1 -1 1 2 2 4 4 4 5 7 8 8 8 8 8 8 8 8 9 9 6 8 4 5 5 6 9 8 8 7 6 6 5 4 3 3 2 1 1 1 -1
-5 -1 -0 -2 -2 -0 1 3 3 4 5 6 7 8 8 9 9 9 9 8 10 10 9 8 8 8 9 9 8 8 7 6 5 4 4 3 2 1 1 1 0 -0 -2
-5 -1 0 -1 -1 -0 -1 -1 2 2 4 5 5 7 8 9 9 9 8 8 10 10 10 9 9 9 9 8 7 6 5 4 5 4 3 2 1 1 -0 -0 -1 -2 -3
-3 -4 -3 -1 0 -1 -1 -1 -0 -0 2 5 6 7 8 9 9 9 8 8 9 10 10 9 9 8 7 6 5 5 5 4 4 3 1 1 0 -0 -1 -2 -3 -3 -3
-2 -3 -4 -4 -2 1 2 1 2 2 4 7 8 8 9 9 9 9 10 10 9 9 9 8 7 6 6 5 5 5 4 3 2 1 0 -0 -0 -1 -2 -3 -4 -5 -7
-5 -4 -3 -4 -4 1 3 3 5 5 6 8 8 8 9 10 10 10 10 9 9 8 7 6 5 5 4 4 4 3 2 1 0 0 -1 -1 -2 -3 -4 -6 -7 -12 -26
-4 -5 -3 -3 -4 -0 4 6 7 7 8 9 9 9 8 10 10 10 9 8 7 6 4 4 4 3 3 2 1 0 -1 -1 -1 -1 -2 -3 -4 -4 -4 -10 -24 -36 -37
-5 -5 -4 -4 -2 2 5 7 8 9 9 10 10 10 10 9 9 8 7 6 5 4 3 1 1 1 0 -0 -1 -1 -2 -2 -2 -3 -4 -4 -4 -8 -22 -35 -37 -33 -31
-5 -3 -2 -0 3 5 7 8 9 9 9 9 9 9 8 7 6 6 5 4 3 1 0 -1 -1 -1 -2 -2 -2 -2 -3 -3 -3 -3 -4 -7 -18 -32 -37 -36 -30 -28 -27
-3 -1 0 3 5 7 8 9 9 9 8 7 6 5 4 3 2 2 1 0 -1 -1 -1 -1 -1 -2 -2 -2 -2 -3 -3 -4 -4 -6 -12 -25 -35 -36 -32 -26 -24 -26 -27
1 2 4 6 7 8 9 8 8 7 6 5 4 3 2 1 1 0 -0 -0 -0 -1 -1 -1 -2 -3 -3 -3 -3 -4 -5 -6 -9 -18 -32 -34 -33 -30 -25 -24 -25 -26 -27
4 5 6 7 7 7 6 6 5 4 4 3 2 2 1 1 0 -0 -0 -1 -1 -1 -2 -2 -2 -3 -3 -4 -5 -7 -10 -15 -28 -32 -31 -28 -25 -23 -23 -25 -26 -26 -27
3 4 5 5 5 4 4 3 3 3 2 2 2 2 1 0 -0 -1 -2 -2 -3 -3 -4 -4 -4 -4 -6 -8 -9 -15 -25 -28 -28 -28 -26 -24 -22 -22 -22 -23 -24 -25 -25

GFSMW_850_dewp_048.txt.gz
Dewpoint
8 8 7 8 9 9 9 9 10 10 9 7 9 8 5 4 3 2 6 5 4 4 6 5 4 5 5 5 6 7 6 6 6 4 3 2 1 1 0 -1 -1 -2 -1
8 9 9 7 8 8 8 9 9 9 9 7 9 8 5 5 3 5 7 5 6 5 6 3 4 4 4 5 5 7 7 7 7 5 4 2 2 1 1 0 0 -1 -3
7 8 9 7 8 8 8 8 8 8 9 9 9 8 6 5 3 7 6 4 3 1 5 5 5 4 5 6 6 6 7 7 7 6 5 3 2 2 2 2 1 -0 -1
6 7 8 8 5 7 8 8 8 8 8 8 8 7 5 4 4 6 4 4 3 2 4 4 4 2 5 8 8 8 8 8 7 7 6 6 5 3 3 3 2 2 1
7 6 6 7 6 5 6 7 7 8 8 7 6 6 5 6 4 6 3 2 2 2 2 3 3 3 5 7 8 8 7 7 8 7 7 7 6 5 3 2 4 3 4
6 7 6 6 7 5 6 6 7 7 8 7 7 6 6 5 5 4 3 3 2 2 1 2 2 2 4 5 6 6 7 7 8 8 8 8 7 6 5 4 4 5 4
3 6 7 7 7 6 3 4 5 6 7 7 7 7 6 6 5 4 3 3 2 1 1 1 0 1 3 4 6 4 6 8 8 8 9 8 8 7 6 5 5 4 5
2 3 4 6 5 6 5 1 1 3 5 5 5 5 6 5 5 5 4 4 4 3 2 2 1 1 2 4 4 2 6 9 9 9 8 8 8 8 7 6 6 5 5
2 2 4 5 5 5 5 4 1 -1 -0 2 3 3 4 5 4 4 3 4 5 3 3 2 1 1 2 4 7 7 6 7 8 7 8 8 9 8 7 5 6 6 5
3 2 4 4 4 4 4 5 4 2 -2 -1 1 2 1 2 3 4 4 5 4 3 2 1 1 2 4 5 7 9 7 6 7 8 7 8 8 9 7 6 6 6 5
2 1 2 3 4 5 4 4 4 4 3 -0 -1 0 1 1 1 1 0 1 1 0 1 2 2 4 6 7 9 9 7 6 9 9 9 8 8 8 6 6 6 5 4
-2 -0 -0 1 3 4 5 4 4 4 4 4 1 0 -0 -0 1 2 2 3 4 3 2 3 5 6 6 8 8 9 7 7 8 8 8 8 8 7 6 6 5 4 3
-4 -1 0 0 1 2 3 4 4 4 5 5 5 4 2 2 1 0 1 2 4 4 6 6 7 8 6 7 8 6 7 5 7 8 8 8 7 6 6 5 4 3 3
-6 -5 -3 -3 -1 1 3 2 2 3 5 5 5 6 5 5 4 4 4 3 4 5 6 7 7 8 8 8 5 5 6 7 8 8 7 6 6 5 5 4 3 2 2
-5 -5 -4 -5 -3 -1 1 0 -0 2 3 4 5 4 5 6 6 6 7 7 7 7 8 8 9 9 8 7 4 5 7 8 8 7 6 6 5 4 3 3 2 1 1
-5 -5 -6 -5 -3 -3 -3 -2 -3 -1 1 2 2 3 5 6 7 8 8 8 8 8 9 10 9 10 9 10 9 7 9 8 7 6 5 4 3 3 2 1 1 0 -0
-3 -5 -5 -5 -3 -2 -3 -2 -3 -1 0 2 3 4 5 6 8 8 9 9 9 9 10 9 10 9 9 9 9 8 7 7 6 5 4 4 2 2 1 0 -0 -1 -2
-5 -3 -3 -4 -4 -4 -3 -2 -1 0 1 4 4 5 6 7 8 9 9 10 10 10 10 9 9 8 9 8 7 7 6 5 4 4 3 2 1 1 -0 -1 -1 -2 -3
-6 -5 -4 -2 -2 -3 -4 -1 1 2 2 4 5 6 7 8 9 10 10 10 9 9 8 8 8 8 7 7 6 6 5 4 3 2 1 1 0 -0 -1 -2 -3 -4 -7
-5 -7 -6 -5 -4 -3 -3 -2 1 3 5 6 6 8 8 9 10 9 9 8 8 8 8 7 6 6 5 5 5 4 4 3 2 1 0 -0 -1 -2 -3 -3 -5 -8 -24
-6 -6 -7 -4 -4 -3 -2 -2 2 5 6 8 8 9 10 10 9 9 9 8 8 7 6 5 4 4 4 3 3 2 2 1 0 -0 -1 -2 -3 -3 -4 -5 -15 -31 -36
-5 -6 -4 -3 -2 -3 -1 3 6 7 9 9 10 10 9 9 9 8 8 7 6 5 4 4 3 2 2 1 0 -0 -1 -1 -2 -2 -3 -4 -4 -5 -9 -24 -35 -35 -34
-2 -2 -0 2 2 5 6 7 8 9 10 10 10 10 9 8 7 6 6 5 4 3 3 1 1 0 -0 -0 -1 -1 -2 -3 -4 -4 -4 -4 -7 -16 -32 -32 -30 -29 -27
4 4 5 6 7 8 8 9 9 9 9 9 9 8 7 6 5 4 4 3 3 1 0 -1 -1 -1 -1 -2 -2 -2 -3 -4 -4 -4 -7 -15 -28 -32 -30 -27 -25 -25 -27
4 5 7 7 7 8 8 8 9 8 7 7 6 5 4 3 2 1 0 -0 -1 -1 -1 -1 -1 -2 -2 -3 -3 -4 -4 -5 -7 -13 -25 -30 -25 -23 -24 -23 -24 -25 -26
3 4 6 6 6 6 7 7 6 5 5 4 3 2 2 1 1 1 0 -0 -1 -1 -1 -2 -2 -3 -4 -4 -5 -5 -7 -11 -21 -27 -26 -24 -24 -23 -23 -23 -23 -21 -18

GFSMW_850_dewp_051.txt.gz
Dewpoint
8 6 7 7 8 9 9 9 9 9 9 9 9 8 7 7 6 5 6 5 3 3 3 4 4 4 4 5 6 6 6 5 4 3 3 2 2 1 -1 -1 -1 -1 -2
8 8 8 6 8 8 9 9 9 9 9 9 8 7 6 6 6 4 5 7 3 3 3 3 4 5 5 5 5 6 6 6 6 6 5 3 3 4 3 1 1 0 -0
7 8 8 7 5 8 8 8 9 9 9 9 7 6 7 8 8 6 7 5 3 3 3 4 6 6 4 4 4 4 4 7 7 7 6 4 4 4 3 3 2 2 1
7 6 7 7 5 5 8 8 8 9 9 9 9 8 8 7 6 4 3 4 5 5 4 5 6 4 4 4 4 6 6 7 7 7 7 7 6 5 4 4 4 3 3
8 6 5 5 7 4 6 7 8 8 9 9 8 8 8 5 4 3 2 2 4 3 4 3 5 5 3 5 5 5 5 7 8 8 8 7 6 6 5 6 4 4 4
6 7 6 5 6 5 4 6 7 7 8 9 8 9 8 6 5 5 3 3 7 4 4 4 3 3 3 4 5 6 4 6 7 8 8 8 7 7 6 5 6 4 4
5 6 7 6 6 7 4 4 6 6 8 8 8 8 8 7 5 4 3 3 5 4 4 3 3 3 2 2 2 4 5 5 6 6 6 8 8 8 7 7 7 4 5
1 4 3 6 6 6 6 2 3 5 6 6 7 7 7 7 6 5 4 4 5 3 3 2 2 2 2 2 1 1 3 4 5 6 6 8 9 8 7 8 7 5 5
-1 1 4 4 6 6 5 4 1 1 3 3 5 6 6 6 6 6 5 5 4 5 4 3 3 2 2 1 2 1 1 3 5 7 7 6 7 6 7 7 8 7 5
-2 1 3 3 4 5 5 5 4 2 -3 -1 1 2 3 5 6 6 5 5 4 4 4 4 3 3 3 2 3 2 2 4 6 7 9 8 6 7 7 7 8 7 6
-3 0 2 2 3 4 6 5 5 5 2 -1 -2 0 1 2 2 2 2 1 2 2 2 2 3 3 3 3 3 2 2 7 7 5 7 7 7 7 8 8 8 7 6
-3 -2 1 2 3 4 5 5 5 6 5 4 1 -1 -1 0 1 -0 0 1 2 2 3 2 1 1 2 2 1 1 5 8 7 7 8 7 7 7 8 8 7 6 6
-6 -4 -2 -0 1 3 4 3 4 4 5 5 5 3 1 -0 -1 -1 -1 0 0 0 2 4 3 4 3 2 3 6 7 8 6 7 7 6 7 8 7 7 6 6 4
-5 -5 -5 -4 -2 0 2 2 2 4 5 5 5 5 5 4 3 1 1 0 -0 1 1 2 3 4 5 5 6 8 8 9 7 6 6 8 8 7 7 6 5 4 3
-4 -4 -5 -6 -5 -3 -1 1 2 2 4 5 5 4 5 5 5 4 3 2 2 2 2 1 2 3 4 5 6 8 9 9 9 8 6 8 7 6 5 5 4 3 3
-4 -4 -4 -5 -5 -5 -4 -2 -3 -2 -0 1 1 3 4 5 5 6 6 6 5 4 4 4 5 6 6 7 8 9 9 9 7 7 8 7 6 5 4 4 3 2 1
-4 -4 -3 -3 -5 -6 -6 -4 -5 -4 -2 -3 -1 1 3 3 4 5 7 7 7 8 8 7 8 8 9 9 9 9 9 8 8 8 6 6 5 4 3 2 1 0 -0
-5 -5 -6 -6 -4 -4 -4 -4 -3 -3 -2 -2 -2 0 2 2 4 6 7 8 9 9 9 9 9 9 9 9 9 8 8 7 7 6 5 5 4 3 2 1 0 -0 -1
-3 -4 -4 -6 -5 -4 -3 -4 -2 -1 -1 -1 -0 1 3 4 5 6 7 9 9 10 10 9 9 9 9 9 8 8 7 6 5 4 4 3 3 2 1 -1 -1 -2 -3
0 -2 -5 -5 -5 -6 -4 -2 -2 -2 0 -0 2 3 4 6 6 8 9 9 9 9 9 9 9 8 7 7 6 6 5 5 4 4 3 1 1 -0 -1 -2 -3 -3 -4
0 -1 -3 -4 -5 -5 -5 -3 -2 -0 1 3 5 6 7 8 9 9 9 9 9 8 8 7 7 6 5 5 4 4 4 3 3 2 0 -1 -1 -2 -3 -3 -4 -6 -15
2 2 -1 -4 -3 -3 -3 -1 0 2 5 7 8 9 9 9 9 9 9 8 8 7 6 5 4 3 3 3 2 2 1 1 1 -1 -1 -2 -3 -3 -4 -5 -9 -23 -34
4 5 5 1 1 -0 2 2 4 7 8 9 9 9 9 9 9 8 8 7 6 4 4 3 3 2 1 1 -0 -1 -1 -1 -2 -2 -3 -4 -4 -5 -8 -16 -31 -30 -25
5 6 6 6 6 7 7 8 8 9 9 9 9 8 8 8 7 6 5 4 4 3 3 2 1 1 -0 -1 -1 -2 -2 -2 -3 -3 -4 -5 -8 -17 -28 -24 -17 -19 -23
5 6 6 7 6 7 8 8 8 8 8 8 8 7 6 6 5 4 3 2 2 1 0 -0 -0 -1 -1 -2 -2 -3 -3 -4 -5 -5 -7 -13 -22 -28 -24 -22 -21 -22 -22
3 5 5 5 6 6 7 6 6 7 8 7 6 4 4 3 2 1 -0 -1 -1 -1 -1 -1 -2 -2 -3 -3 -4 -4 -5 -6 -6 -9 -19 -24 -19 -16 -13 -12 -13 -13 -13

GFSMW_850_dewp_054.txt.gz
Dewpoint
7 8 9 7 9 9 9 9 10 9 9 9 8 9 8 7 5 5 4 6 3 2 1 4 1 4 6 6 5 5 2 2 1 1 1 1 0 1 2 2 2 1 1
8 8 9 9 8 8 9 9 9 9 9 8 8 8 7 7 6 5 4 6 5 3 4 5 4 4 6 6 5 6 6 5 3 3 4 4 3 3 4 4 2 1 -0
7 8 8 9 9 9 9 9 9 9 9 9 9 9 8 7 7 5 7 5 7 5 6 4 6 5 5 5 5 5 7 7 6 6 6 5 5 4 4 4 3 3 2
7 7 8 9 9 9 9 8 9 9 9 9 9 8 8 8 6 5 5 7 8 6 7 4 4 4 5 6 7 4 4 7 7 7 6 7 6 5 5 5 4 3 3
7 7 8 8 9 8 9 9 8 9 9 9 9 8 8 7 6 7 6 8 6 7 4 4 4 5 6 5 6 4 4 8 8 7 7 7 7 7 7 6 6 6 7
6 7 8 8 8 8 9 9 8 8 9 9 9 7 7 7 6 6 5 5 6 7 4 4 4 6 6 4 4 4 4 5 7 6 8 8 7 7 7 6 6 6 6
5 7 8 8 8 9 8 8 8 8 8 9 9 8 8 5 7 7 6 5 6 5 5 5 5 6 6 5 5 5 4 5 6 6 6 8 8 8 7 7 6 6 7
5 6 7 8 8 8 8 4 8 8 8 9 9 9 8 8 8 7 7 5 4 3 4 4 3 3 4 4 4 4 3 3 2 2 3 8 8 6 5 8 8 7 7
3 5 6 7 8 8 6 5 2 7 8 8 9 9 9 9 9 7 6 5 3 4 3 3 3 2 3 4 3 3 3 5 7 3 2 5 5 6 7 7 7 7 7
-1 2 5 7 8 8 8 6 5 6 7 8 9 9 9 9 9 8 7 5 5 4 4 3 5 5 4 3 2 2 3 6 7 7 7 3 5 6 7 7 6 6 6
-1 2 4 6 7 8 9 6 6 8 7 8 8 9 8 9 9 8 8 8 6 5 5 4 3 4 3 3 5 6 6 6 5 7 3 3 6 7 7 7 6 7 6
-2 0 5 6 7 8 8 8 7 7 7 7 8 7 8 8 8 7 5 5 6 7 6 6 5 5 6 6 6 7 6 7 8 4 2 5 7 6 7 7 7 7 8
-3 -2 3 6 7 7 8 8 8 5 7 8 7 5 5 6 4 2 3 5 6 7 7 7 7 7 6 7 5 4 5 7 5 3 4 5 7 5 7 7 7 8 7
-3 -3 -2 3 6 7 7 7 8 6 7 8 8 7 4 1 -1 -1 2 2 1 3 2 4 5 5 4 5 5 4 5 7 3 4 8 8 8 5 7 7 8 7 7
-3 -3 -2 -2 1 5 7 7 8 8 6 8 8 6 5 5 4 3 2 1 2 1 2 4 5 5 7 6 8 8 6 6 6 7 9 9 8 7 7 7 7 6 5
-3 -3 -3 -2 -2 -1 4 7 7 6 6 5 4 6 7 6 5 6 6 6 4 3 4 5 7 7 7 4 4 5 5 5 7 9 9 9 8 9 7 7 6 5 4
-0 -2 -2 -1 -0 -2 -3 -3 -0 7 6 3 5 6 6 6 6 6 6 7 8 8 8 8 8 8 8 8 6 5 6 8 9 9 9 8 8 7 7 5 4 4 3
4 3 2 1 -1 -1 -2 -3 3 6 6 3 5 6 5 5 7 7 7 8 8 8 9 9 8 9 9 9 9 9 9 9 9 8 8 8 7 6 5 4 3 2 2
4 4 3 3 2 -0 -1 -4 1 4 6 4 1 2 5 7 8 7 8 9 9 9 9 9 9 9 9 9 9 9 9 9 8 7 7 5 5 4 3 3 2 1 -0
4 4 4 4 2 -1 -1 -1 -4 1 4 3 6 6 6 8 8 9 9 7 8 9 9 9 9 9 9 9 8 8 8 7 6 5 4 3 3 3 1 -0 -0 -1 -2
4 4 5 5 5 3 2 -2 -3 -2 4 5 4 6 8 9 8 7 8 8 9 9 9 9 8 8 8 7 6 6 5 5 5 4 3 1 0 -1 -1 -2 -3 -3 -4
3 4 5 6 6 6 6 4 4 5 5 3 4 5 6 7 7 8 9 9 9 9 8 8 7 6 5 4 3 3 3 3 3 2 0 -1 -2 -2 -3 -3 -4 -5 -8
3 3 4 4 5 6 6 7 4 5 6 6 8 8 8 9 9 9 9 8 8 7 7 5 4 3 2 1 1 1 1 0 0 -1 -2 -3 -3 -4 -4 -5 -8 -19 -26
2 2 3 3 4 5 6 6 6 7 8 8 9 9 9 8 8 8 7 7 6 5 4 3 3 2 1 0 -0 -1 -2 -2 -2 -3 -3 -4 -5 -6 -8 -11 -18 -17 -15
2 2 1 2 2 2 4 5 6 6 7 8 7 7 7 7 5 5 4 3 2 2 2 1 1 0 -1 -2 -2 -2 -3 -3 -4 -5 -6 -7 -9 -10 -12 -15 -19 -17 -12
2 1 -2 1 1 0 2 4 4 4 5 5 4 3 3 3 3 2 1 -0 -0 -0 -1 -1 -1 -2 -2 -3 -4 -5 -5 -6 -6 -7 -8 -9 -10 -11 -11 -12 -13 -13 -14

GFSMW_850_dewp_060.txt.gz
Dewpoint
5 6 7 7 9 10 11 10 9 9 8 8 9 9 9 9 9 8 5 8 7 7 7 5 4 5 5 5 5 5 4 4 3 4 4 4 4 4 3 4 6 5 7
4 6 7 7 9 10 10 10 9 9 8 8 9 9 9 9 8 7 5 8 6 7 6 4 4 4 4 4 4 4 4 4 3 3 2 3 3 3 3 3 2 2 4
4 6 8 8 9 10 10 10 10 9 9 8 9 9 9 8 7 7 3 3 6 5 4 2 1 1 4 4 5 4 4 3 3 3 1 2 3 3 2 2 2 3 3
3 6 7 9 8 10 10 9 10 9 9 9 9 9 8 8 6 3 2 6 4 3 2 2 1 -1 -0 1 6 6 5 5 4 3 1 3 5 6 6 4 4 4 4
1 5 7 8 9 9 10 9 10 9 9 9 9 9 8 8 6 6 4 4 5 4 3 3 3 1 1 4 8 7 6 6 7 6 4 3 5 6 6 6 6 5 5
-1 4 6 8 9 9 10 10 10 10 9 9 9 9 8 8 6 4 5 4 3 4 2 2 3 7 5 4 7 8 7 6 6 7 8 7 5 3 5 6 6 7 6
-0 3 6 7 8 9 9 9 9 10 10 9 9 9 8 8 8 5 3 3 4 4 4 4 3 4 6 7 6 7 6 6 6 5 5 6 5 4 5 6 6 6 6
-1 1 5 7 8 9 9 10 10 9 10 9 9 9 9 8 8 8 6 3 4 6 5 5 3 3 8 7 7 5 5 5 5 5 5 6 5 4 4 5 5 7 7
-2 0 3 6 7 8 9 9 9 9 9 9 9 9 9 9 8 8 7 5 4 4 6 5 4 5 6 7 7 4 4 4 6 5 4 5 5 4 4 5 4 5 7
-2 0 2 5 7 8 9 9 9 8 9 8 8 9 9 9 9 9 8 8 7 4 5 5 4 5 7 7 7 4 4 4 4 5 6 5 5 4 4 4 5 6 7
-3 -2 0 2 6 7 8 9 9 9 8 9 8 9 9 10 9 9 9 8 8 7 7 6 5 5 7 7 7 7 6 4 5 5 6 6 5 5 6 6 6 6 6
-4 -2 -1 2 3 6 8 9 9 9 8 8 8 7 6 9 9 8 8 8 8 7 6 6 6 5 4 4 4 6 6 6 6 7 7 6 7 7 7 8 8 7 5
-3 -3 -2 1 4 5 7 8 9 9 8 8 8 8 7 6 6 7 8 8 8 8 8 7 6 7 5 4 4 5 6 6 7 6 7 7 7 7 7 7 7 7 6
-2 -0 1 2 1 4 6 7 8 9 9 8 8 9 8 7 3 4 7 8 8 8 8 8 8 8 7 7 7 7 7 7 7 7 7 7 7 7 7 7 8 8 8
-1 2 3 3 3 3 2 5 7 8 9 9 8 8 9 9 9 9 7 7 8 9 9 10 9 9 9 8 7 7 8 8 8 8 8 8 8 8 8 7 8 8 8
2 3 3 4 4 4 3 3 3 7 8 9 9 9 8 9 9 10 10 10 10 9 10 10 10 10 9 8 8 8 8 8 8 8 8 8 8 8 7 8 8 8 8
3 3 3 4 4 5 4 3 3 3 4 8 8 9 9 9 9 9 10 10 10 10 10 10 10 10 9 9 9 9 9 9 9 8 8 8 8 7 7 9 9 8 8
2 2 2 3 4 5 6 5 4 3 2 2 7 8 9 9 9 9 10 9 9 10 10 10 10 9 9 9 9 9 9 9 8 8 8 9 8 8 8 9 9 8 7
1 2 2 3 4 4 4 4 3 4 4 3 1 5 8 9 9 9 10 10 10 10 10 10 10 10 9 9 9 9 9 8 8 8 8 8 9 9 8 8 8 6 5
2 1 2 2 3 2 4 4 5 5 6 6 6 4 2 7 9 9 9 10 10 10 10 10 10 9 9 9 8 9 9 8 8 8 8 8 8 8 7 6 4 4 1
2 1 1 1 1 2 3 4 5 6 6 7 7 5 3 4 8 8 9 9 9 10 10 9 9 9 9 9 9 9 9 9 9 8 7 6 6 4 3 2 1 -1 -3
1 1 0 -0 -0 0 2 2 3 4 6 6 7 7 7 5 8 8 8 9 9 9 10 9 9 9 8 9 9 9 8 8 7 6 4 1 0 0 -1 -2 -2 -3 -4
-1 -1 -0 -1 -0 1 1 1 1 2 3 5 5 5 7 7 8 8 8 8 9 9 9 9 8 7 5 6 5 4 3 2 3 1 -1 -1 -3 -3 -3 -4 -4 -5 -5
-3 -3 -2 -2 -1 -1 -0 -1 -1 -1 1 3 2 3 4 6 7 8 8 8 9 9 8 7 5 3 2 0 -1 -1 -1 -1 -1 -3 -5 -5 -5 -5 -5 -5 -6 -6 -7
-3 -3 -3 -4 -3 -3 -2 -2 -2 -2 -1 -1 -2 -1 -1 -0 1 3 3 5 3 4 4 2 -1 -1 -3 -3 -3 -3 -4 -4 -5 -5 -5 -5 -6 -6 -7 -8 -8 -9 -9
-5 -5 -5 -4 -5 -5 -4 -4 -4 -4 -4 -3 -3 -4 -5 -6 -7 -5 -4 -5 -2 -2 -3 -3 -3 -4 -5 -6 -5 -4 -5 -5 -6 -6 -6 -8 -8 -9 -10 -11 -12 -12 -12

GFSMW_850_dewp_063.txt.gz
Dewpoint
6 6 5 6 7 9 9 10 10 10 10 10 10 10 10 10 10 10 9 8 6 7 9 7 7 7 7 7 7 6 4 5 5 5 5 6 6 5 6 7 7 7 7
6 6 6 6 7 8 9 9 10 9 9 8 8 9 8 9 9 10 10 8 9 9 9 7 7 7 8 7 6 5 5 5 4 5 5 5 5 5 4 3 5 6 6
6 6 6 6 7 8 8 8 9 9 9 9 8 9 9 9 9 9 9 8 7 9 8 6 7 7 6 6 5 5 5 4 4 4 5 4 4 3 3 3 3 3 4
5 6 6 7 7 7 9 8 9 10 9 9 9 9 9 8 8 8 8 7 4 8 7 6 7 7 6 5 4 4 3 1 4 4 3 2 1 3 4 3 3 3 3
5 6 6 6 7 7 8 8 9 9 9 9 8 8 9 9 8 7 8 8 6 6 6 6 5 1 1 3 5 4 1 1 4 3 3 2 1 5 6 6 5 4 3
5 5 5 7 7 7 8 9 7 9 9 9 8 8 8 8 7 7 5 5 4 5 4 4 0 1 2 4 4 0 1 3 3 3 3 3 1 3 3 6 6 5 5
5 6 7 7 8 8 8 8 8 9 9 9 8 8 8 7 7 7 5 4 6 5 3 3 1 1 1 2 3 3 3 3 7 5 6 7 6 5 5 5 5 6 6
6 6 6 7 8 8 8 8 9 7 8 9 9 8 8 8 8 7 5 3 2 3 3 2 1 2 4 4 3 5 7 5 7 7 6 6 7 6 5 6 4 5 5
5 5 6 6 7 8 8 8 8 8 8 9 9 9 8 8 8 8 7 3 2 3 4 5 4 3 2 6 6 7 6 7 7 6 4 5 5 4 4 4 5 5 6
1 6 6 6 7 6 7 8 8 8 5 9 9 9 8 8 8 8 7 6 3 3 3 3 4 5 4 3 4 6 6 6 6 6 5 4 5 5 5 5 5 5 5
0 3 6 5 5 6 7 8 8 8 8 5 8 9 9 9 8 9 8 8 7 7 4 3 3 3 3 4 4 4 5 5 5 5 4 4 3 4 4 4 5 5 4
1 1 3 6 8 7 8 8 8 8 8 7 7 7 9 9 9 9 9 8 8 8 7 6 4 4 3 3 4 4 5 6 5 5 5 4 4 4 3 4 5 5 5
2 2 2 4 6 9 9 8 8 9 9 9 8 8 8 8 9 9 9 9 9 8 8 8 7 6 4 4 5 4 4 6 6 6 6 4 5 5 4 5 6 6 6
2 3 4 4 4 4 5 9 10 9 8 9 8 8 7 7 7 7 10 10 9 9 8 8 8 7 7 7 6 4 4 5 6 6 5 4 5 5 5 6 6 6 7
3 3 4 4 3 3 3 4 5 6 10 9 8 8 8 7 7 8 7 8 9 9 9 8 8 7 7 6 6 5 5 6 6 6 5 5 5 6 6 7 7 7 8
3 3 3 2 3 3 3 4 4 4 6 9 10 9 9 8 8 8 8 8 7 6 9 8 8 9 8 7 7 7 7 7 7 7 7 7 8 7 7 7 8 8 8
3 3 2 2 0 0 0 1 2 3 4 6 7 10 9 9 9 8 8 9 9 8 8 8 9 9 9 9 9 9 9 8 8 8 8 8 7 7 7 8 9 9 9
2 2 2 1 0 -1 -1 -1 0 2 3 3 5 6 9 10 9 9 9 9 9 10 10 9 9 10 9 10 10 10 9 9 8 8 8 8 8 8 8 8 8 8 9
1 1 1 1 1 -1 -2 -1 1 2 3 3 4 5 5 5 8 10 9 9 9 9 10 10 10 10 10 10 10 10 10 9 9 9 9 9 8 8 8 8 8 8 8
1 0 0 0 0 -0 0 -1 0 1 1 2 4 5 5 5 5 6 9 10 10 9 10 10 10 10 10 10 10 10 10 10 9 9 9 9 9 9 9 9 9 7 3
-0 -1 -0 -0 -0 0 0 -0 -0 0 1 2 2 3 5 5 6 6 5 9 10 10 10 10 10 10 10 10 10 10 10 10 9 9 9 8 8 8 8 7 3 2 -0
-1 -1 -0 -0 0 0 -0 -0 -1 -1 -1 0 1 2 4 5 6 6 7 9 10 10 10 10 10 10 10 10 10 9 9 9 9 8 6 5 3 2 1 0 -1 -2 -3
-1 -0 -0 -0 -1 -1 -1 -1 -1 -1 -1 -1 -1 -0 2 4 5 5 6 7 8 9 9 9 9 8 7 6 7 8 8 7 5 3 0 -2 -3 -4 -3 -4 -5 -5 -5
-1 -2 -1 -1 -1 -2 -2 -2 -2 -3 -3 -3 -3 -3 -2 -0 2 3 3 3 4 5 4 3 5 3 3 -0 -2 -0 0 1 -1 -4 -5 -5 -4 -5 -6 -6 -6 -5 -6
-2 -3 -3 -3 -4 -3 -3 -3 -3 -4 -4 -4 -4 -4 -4 -4 -3 -2 -2 -2 -2 -2 -2 -3 -5 -4 -4 -5 -4 -4 -4 -5 -5 -5 -5 -5 -6 -6 -6 -7 -8 -8 -9
-5 -5 -6 -6 -6 -6 -6 -6 -5 -5 -6 -6 -6 -6 -7 -7 -7 -6 -6 -7 -6 -5 -5 -5 -6 -7 -7 -6 -6 -6 -6 -6 -6 -6 -6 -8 -8 -10 -10 -10 -10 -10 -11

GFSMW_850_dewp_066.txt.gz
Dewpoint
5 6 5 6 9 9 9 7 9 10 10 10 10 10 10 10 10 10 9 8 7 7 7 8 4 1 4 6 7 6 5 6 6 7 7 7 7 7 7 7 6 7 6
6 6 6 6 8 8 9 7 7 11 10 10 10 10 10 10 10 10 10 8 7 8 6 5 6 3 1 5 7 6 6 6 5 5 6 7 7 7 7 6 6 6 6
6 6 6 6 7 8 8 7 4 10 10 11 10 10 10 10 10 10 10 9 8 7 6 5 7 5 6 5 7 6 5 5 6 5 5 6 6 6 6 6 5 4 4
5 6 6 6 7 8 8 6 5 10 10 10 9 8 8 8 8 9 9 9 8 7 7 8 8 6 7 7 7 7 5 4 5 6 6 4 5 4 4 5 4 4 3
4 6 6 6 6 7 7 6 6 9 9 9 9 9 8 8 9 9 9 9 8 7 9 9 9 7 8 8 7 6 5 4 5 6 1 3 5 2 2 3 2 3 3
5 5 6 6 7 8 8 7 6 8 9 9 9 8 8 8 9 9 9 9 9 8 8 8 8 8 7 6 7 4 5 5 4 1 2 4 4 2 3 5 6 5 5
6 6 6 6 7 7 8 7 7 5 9 9 8 8 8 8 8 9 9 9 8 7 8 6 7 8 7 6 5 5 4 4 2 2 1 3 3 3 2 2 2 3 4
6 6 5 5 6 7 8 8 7 6 6 9 8 8 8 9 8 8 7 7 7 5 5 7 7 7 5 4 3 3 3 1 2 2 3 2 3 3 3 3 4 6 6
6 6 6 5 6 7 7 7 7 6 5 6 8 8 8 9 8 7 7 6 6 6 6 5 5 5 3 1 2 3 4 2 1 3 5 4 5 6 6 6 6 6 4
6 6 5 5 5 6 7 8 8 7 6 4 6 9 8 8 8 7 7 7 7 4 4 4 4 3 3 0 2 1 2 3 5 6 5 4 4 6 6 5 5 5 4
7 8 8 8 8 8 7 8 8 8 8 7 4 7 9 8 8 8 8 8 7 6 5 4 3 2 2 2 1 2 3 2 5 5 5 4 5 5 6 5 5 5 5
5 6 8 8 9 9 9 9 9 9 8 8 7 4 5 8 8 8 8 8 8 7 5 4 4 3 2 3 2 2 2 4 5 6 6 6 6 6 5 4 4 4 4
4 5 7 8 9 9 10 10 10 10 9 9 9 8 6 5 6 7 8 9 9 8 8 6 4 3 3 3 3 3 4 4 3 3 3 3 5 5 5 5 4 4 4
4 4 4 4 5 6 7 9 9 9 10 10 9 9 9 8 6 6 5 6 8 9 8 8 8 8 7 6 4 3 3 3 4 4 4 4 4 3 5 6 5 5 6
4 3 3 1 -0 0 1 3 4 6 9 10 10 10 9 9 9 8 8 7 6 6 8 9 9 8 8 8 7 6 5 4 5 4 4 5 4 3 4 6 6 6 7
3 2 1 -0 -2 -3 -1 0 1 2 5 7 9 10 10 10 9 9 9 9 8 8 7 7 9 9 7 7 8 8 8 8 7 7 7 7 6 5 4 5 7 7 8
2 0 -1 -0 -1 -3 -2 -2 0 2 2 4 6 8 9 9 9 10 10 9 9 9 9 8 8 9 8 5 6 7 8 8 8 7 7 7 6 6 6 7 7 8 8
1 -0 -0 -0 -1 -2 -1 -1 -3 -2 -1 0 2 4 5 6 8 9 9 10 10 10 9 9 9 9 8 8 7 7 8 8 8 8 8 8 8 8 7 7 7 8 8
0 -0 -0 -0 -1 -1 -1 -1 -2 -3 -2 -1 0 1 1 3 4 5 6 7 9 9 10 10 10 10 9 9 9 9 9 9 9 9 9 9 9 8 8 8 8 8 9
-1 -1 -0 -0 -1 -1 -1 -1 -1 -2 -2 -2 -1 0 1 1 2 3 4 4 5 6 10 10 10 10 10 10 10 10 10 10 10 10 10 9 9 9 9 9 9 9 9
-1 -1 -1 -1 -1 -1 -1 -1 -1 -1 -1 -1 -1 -0 0 1 2 3 3 4 5 5 6 9 10 10 10 10 10 10 10 10 10 10 10 9 9 9 9 9 8 8 6
-2 -2 -2 -2 -2 -2 -2 -2 -2 -2 -2 -2 -2 -2 -1 -0 1 2 3 4 4 6 7 9 9 9 9 9 10 10 10 10 10 10 9 6 5 4 3 4 4 1 -1
-2 -2 -2 -3 -3 -3 -3 -3 -3 -3 -4 -4 -4 -4 -3 -3 -1 -0 1 2 3 4 4 4 4 3 2 4 5 6 8 9 7 4 -3 -5 -1 -1 -3 -4 -5 -6 -4
-3 -3 -3 -4 -4 -4 -4 -4 -4 -5 -5 -5 -5 -5 -5 -5 -4 -3 -3 -2 -2 -1 -1 -1 -1 -2 -2 -3 -2 -2 -2 -0 -0 -4 -5 -4 -5 -5 -5 -5 -5 -5 -6
-3 -4 -4 -5 -5 -5 -5 -5 -5 -5 -6 -6 -6 -6 -7 -7 -8 -8 -8 -8 -7 -5 -5 -5 -5 -5 -5 -6 -5 -5 -5 -5 -5 -5 -5 -5 -5 -6 -7 -7 -8 -8 -8
-6 -6 -6 -6 -6 -6 -6 -6 -6 -6 -6 -6 -7 -7 -8 -8 -8 -9 -9 -9 -9 -8 -8 -8 -7 -8 -8 -7 -6 -6 -6 -5 -5 -5 -6 -7 -7 -8 -8 -9 -9 -9 -9

GFSMW_850_dewp_069.txt.gz
Dewpoint
2 5 6 7 8 8 8 6 3 8 10 10 10 10 10 10 9 10 10 10 9 8 8 8 4 -2 -7 -9 -9 2 6 6 7 7 7 7 7 7 7 6 4 4 3
5 5 6 7 8 8 8 7 4 6 10 9 9 9 10 10 10 10 10 10 10 8 7 9 7 -0 -6 -9 -9 4 6 6 7 7 7 8 7 7 7 7 7 6 6
4 5 6 6 8 8 7 7 4 5 9 9 9 9 9 9 10 10 10 10 10 8 9 9 8 1 -4 -3 -6 4 5 3 6 7 7 7 7 7 7 7 7 7 6
4 5 5 6 7 7 8 8 5 4 8 9 10 9 9 10 10 10 10 10 10 8 9 9 9 5 -2 2 4 4 5 4 6 6 7 6 5 5 6 6 6 6 5
1 5 5 6 7 7 7 8 6 4 6 9 10 9 9 9 9 9 9 9 10 9 8 8 8 8 4 3 7 7 6 6 5 5 6 5 4 3 1 4 3 5 5
1 4 7 7 7 8 8 8 6 5 7 8 9 10 9 9 9 8 8 9 9 9 9 8 8 8 7 5 5 6 7 6 5 4 5 4 4 3 3 4 3 3 3
0 6 7 7 7 7 8 8 7 5 5 8 8 8 8 8 9 8 8 9 9 9 9 8 8 9 9 7 7 7 7 7 5 4 4 5 2 2 3 5 4 3 4
-2 3 4 6 6 7 7 8 7 6 5 7 7 8 8 7 8 9 8 9 9 9 9 8 8 9 9 8 6 8 8 8 6 5 4 4 2 3 2 4 3 2 2
2 5 6 6 6 6 7 7 7 7 5 5 6 8 8 8 7 8 9 9 9 9 9 8 8 9 9 8 7 7 7 7 5 3 3 4 2 3 3 3 3 3 4
7 7 6 6 7 7 7 8 8 8 7 6 6 7 8 8 8 8 8 8 9 9 8 8 7 7 7 8 8 6 6 6 6 4 4 2 2 2 4 4 3 4 6
8 8 8 8 8 8 8 9 9 9 9 8 8 7 7 8 8 8 7 8 8 8 9 8 7 7 7 6 6 5 4 4 4 4 3 1 1 3 5 5 5 6 6
8 9 9 9 9 9 9 9 9 9 9 9 8 7 7 8 8 8 8 7 7 7 7 7 7 7 7 6 5 4 3 3 2 3 4 3 3 5 5 6 5 5 5
7 7 9 10 10 10 10 10 10 10 10 10 9 9 8 7 7 8 8 8 8 8 8 8 8 6 5 5 4 4 3 2 2 2 3 3 2 2 4 5 5 5 5
4 4 4 5 8 9 9 9 10 9 9 10 10 10 10 9 8 8 8 7 7 8 8 8 8 7 7 5 5 4 3 3 3 2 2 2 3 3 3 4 4 4 5
2 0 -0 1 2 3 4 4 5 8 9 9 9 9 9 10 10 9 9 8 8 8 8 8 8 8 8 7 7 6 4 4 3 4 4 3 3 3 3 4 4 5 5
1 -0 -2 -2 -2 -2 -0 1 2 4 6 8 9 9 9 9 9 9 9 9 9 9 9 9 8 8 8 8 8 8 8 7 7 7 7 6 5 5 4 4 5 6 7
1 -0 -1 -1 -1 -1 -2 -3 -3 -1 0 2 3 5 7 8 9 9 9 9 9 9 9 9 9 9 9 8 8 8 8 8 8 8 8 8 7 7 7 7 7 7 7
0 0 0 -1 -1 -1 -2 -2 -3 -4 -4 -4 -3 -1 0 2 4 7 8 8 8 8 8 8 9 9 9 10 10 9 9 8 9 8 8 8 8 8 8 7 8 8 8
-0 -1 -1 -1 -2 -2 -2 -2 -2 -3 -3 -4 -4 -4 -3 -2 -0 0 2 4 6 7 7 8 8 8 8 9 9 9 9 9 9 9 9 9 8 8 8 8 8 8 8
-1 -1 -1 -1 -1 -1 -2 -2 -2 -2 -3 -3 -3 -3 -2 -2 -1 -1 -0 1 1 2 4 5 5 6 8 9 9 9 9 9 9 9 9 8 8 9 9 8 9 9 8
-1 -1 -2 -2 -2 -2 -3 -3 -3 -3 -3 -3 -3 -3 -3 -3 -2 -1 -0 1 2 3 3 4 4 5 6 7 9 9 9 9 8 8 9 8 9 8 8 8 7 7 6
-2 -3 -3 -3 -3 -3 -3 -3 -3 -4 -3 -4 -4 -4 -4 -4 -3 -2 -1 1 1 2 2 2 2 2 2 2 4 6 8 8 8 6 5 5 4 8 7 6 4 2 -2
-4 -4 -4 -4 -4 -4 -4 -4 -5 -5 -5 -5 -5 -5 -5 -5 -4 -3 -2 -1 0 0 -1 -1 -2 -2 -2 -2 -1 -1 1 3 3 -0 -1 -4 -3 -1 -2 -2 -1 -3 -3
-5 -4 -5 -5 -5 -5 -5 -5 -6 -6 -6 -6 -6 -6 -6 -6 -6 -6 -6 -5 -5 -4 -4 -5 -5 -6 -6 -5 -5 -4 -4 -3 -3 -4 -5 -4 -4 -4 -5 -5 -5 -5 -5
-5 -5 -6 -6 -6 -6 -6 -6 -6 -6 -6 -7 -7 -7 -7 -7 -8 -8 -8 -8 -8 -7 -7 -8 -8 -9 -9 -9 -7 -6 -6 -6 -6 -6 -6 -6 -6 -7 -7 -8 -8 -8 -7
-7 -7 -7 -7 -7 -7 -7 -7 -7 -7 -7 -7 -8 -8 -8 -8 -8 -8 -9 -9 -9 -9 -9 -8 -8 -8 -8 -7 -7 -7 -7 -7 -6 -6 -7 -8 -8 -9 -9 -9 -9 -9 -10

GFSMW_850_dewp_072.txt.gz
Dewpoint
-6 2 5 7 7 8 8 8 7 6 10 9 9 9 10 11 10 10 10 10 10 10 10 9 9 5 1 3 5 6 6 6 7 7 7 7 7 7 6 3 2 0 0
-5 1 5 7 7 8 8 8 7 5 10 10 10 9 9 11 10 11 10 10 10 10 10 9 9 3 -0 2 3 4 5 6 7 7 7 8 7 7 7 6 5 3 2
-5 0 2 5 6 8 8 8 7 5 9 11 10 9 9 10 10 10 10 10 9 8 8 9 9 3 -3 -3 1 4 4 6 7 7 7 7 7 7 7 7 7 7 6
-3 -0 3 4 6 7 8 8 7 6 6 11 9 9 9 10 10 10 10 10 10 10 9 8 8 7 -1 -4 -5 1 1 6 6 7 7 6 6 7 7 7 7 7 7
-3 -1 -1 1 5 6 7 8 8 7 4 11 9 9 9 9 10 9 9 10 10 10 10 9 7 9 7 -1 -8 -8 -1 6 6 6 7 7 6 6 4 -1 -1 -0 3
-4 2 5 6 6 6 8 8 8 7 3 8 10 9 9 9 9 9 9 9 10 10 10 9 9 8 8 3 -5 -5 -2 6 5 4 4 6 7 6 2 0 -1 1 3
-5 -3 5 6 6 6 7 8 7 7 2 5 9 10 9 9 9 9 9 9 9 9 9 10 9 8 9 6 -1 4 2 2 5 5 6 6 6 5 -0 1 2 3 2
-5 -3 -0 4 5 7 7 7 7 7 4 3 8 9 9 9 8 7 8 8 8 8 9 9 9 8 8 8 6 1 5 5 5 5 6 6 5 5 3 2 3 2 2
-4 -2 3 5 6 7 7 7 8 8 5 3 5 8 8 9 8 8 8 8 8 8 8 9 9 9 8 9 8 7 5 6 6 6 7 6 5 5 4 3 2 3 3
4 5 8 9 9 9 9 8 8 8 6 5 4 5 7 8 8 8 8 8 8 8 9 9 9 9 8 8 8 8 7 7 7 7 8 7 6 6 6 3 4 4 4
8 8 10 10 10 10 10 9 8 8 8 7 6 6 6 7 8 8 8 8 9 9 9 9 9 9 8 8 9 9 8 7 6 7 7 7 5 5 4 2 3 3 3
8 9 10 10 10 10 10 10 9 8 8 8 8 8 7 6 6 7 8 8 8 8 8 9 9 8 8 7 7 7 8 8 8 7 6 6 5 5 3 3 3 2 2
5 7 8 8 9 9 9 10 10 10 10 10 9 9 9 8 7 6 6 7 7 7 8 8 8 9 8 8 7 7 7 7 7 6 5 5 5 4 4 5 5 2 2
3 5 6 6 8 9 9 9 9 9 9 9 10 9 10 10 9 8 8 7 6 7 7 7 7 7 7 8 8 7 7 7 7 6 5 5 4 4 3 3 3 3 3
-0 1 3 4 5 7 7 8 8 9 9 9 8 9 9 9 9 9 9 9 8 8 7 7 7 7 8 8 8 8 8 6 6 6 5 4 4 3 3 3 3 3 3
-0 -1 -1 -1 1 2 3 4 6 7 8 8 8 8 8 8 8 8 8 8 9 9 9 9 9 9 9 8 8 8 8 8 8 7 6 5 5 4 3 3 3 4 6
-0 -1 -1 -1 -1 -2 -2 -2 -1 0 2 4 6 7 7 8 8 8 8 8 8 8 8 8 8 8 8 8 9 9 9 8 8 8 8 8 8 7 7 7 7 7 7
1 1 -0 -1 -1 -1 -2 -2 -2 -3 -3 -3 -3 -2 -1 1 3 6 7 7 7 8 8 8 8 8 8 8 8 8 8 8 8 8 8 8 8 8 8 8 8 8 8
1 0 -1 -1 -2 -2 -2 -2 -2 -3 -3 -3 -3 -4 -4 -3 -2 -1 -0 1 3 5 6 7 7 7 7 8 8 8 8 8 8 8 8 8 8 8 8 8 8 8 7
-0 -1 -1 -2 -2 -2 -3 -3 -3 -3 -4 -3 -3 -3 -3 -3 -3 -3 -2 -1 0 1 2 2 3 3 4 5 5 6 6 7 7 7 7 7 7 7 8 8 7 8 7
-2 -3 -2 -2 -3 -3 -4 -4 -4 -4 -4 -4 -4 -4 -4 -4 -3 -3 -2 -1 0 1 1 1 1 1 2 2 3 3 4 5 5 6 5 6 6 7 7 7 7 6 5
-3 -3 -3 -4 -4 -4 -4 -4 -4 -4 -4 -5 -5 -5 -5 -4 -4 -3 -3 -2 -2 -1 -1 -1 -0 -1 -1 -2 -2 -1 0 1 3 2 1 -0 -1 -0 2 3 3 3 2
-4 -4 -4 -4 -4 -5 -4 -5 -5 -5 -5 -5 -5 -6 -6 -6 -6 -5 -5 -4 -4 -4 -4 -4 -4 -4 -5 -5 -5 -4 -3 -2 -1 -3 -4 -4 -3 -3 -3 -3 -4 -4 -4
-6 -6 -6 -6 -6 -6 -6 -6 -6 -6 -6 -6 -6 -6 -6 -7 -7 -7 -7 -7 -7 -7 -7 -8 -8 -7 -7 -6 -6 -6 -5 -5 -5 -5 -5 -6 -6 -7 -7 -6 -6 -7 -7
-7 -6 -7 -7 -6 -6 -6 -7 -7 -7 -7 -7 -7 -7 -7 -7 -7 -7 -8 -8 -8 -8 -8 -8 -7 -7 -7 -7 -7 -7 -7 -7 -7 -7 -7 -7 -7 -7 -8 -8 -9 -9 -9
-7 -7 -7 -7 -7 -7 -7 -7 -7 -7 -7 -8 -8 -8 -8 -8 -8 -8 -8 -8 -8 -8 -8 -8 -8 -8 -8 -7 -7 -7 -7 -7 -6 -7 -7 -8 -8 -8 -9 -9 -9 -9 -10

GFSMW_850_dewp_078.txt.gz
Dewpoint
-6 -6 -1 7 9 11 12 8 6 8 7 7 9 10 11 10 10 10 10 10 11 11 10 10 11 10 10 8 9 10 9 9 9 8 8 9 9 9 9 8 7 7 7
-7 -6 -1 7 9 11 12 8 7 8 7 7 9 10 9 10 10 9 9 9 10 10 11 10 10 10 10 8 9 9 9 8 9 8 8 9 8 8 8 9 8 7 7
-6 -7 -0 7 9 10 11 9 8 9 8 9 9 9 8 10 10 10 10 10 10 9 10 10 10 10 10 9 9 9 9 8 9 8 6 7 6 8 9 8 8 7 7
-6 -5 -3 5 8 10 12 11 12 10 10 10 8 7 9 10 10 10 9 9 9 9 10 10 10 10 10 10 8 9 9 8 9 8 7 6 4 6 8 8 8 6 4
-6 -4 -2 2 7 9 11 12 12 10 11 10 9 9 9 10 9 10 10 10 9 9 10 10 10 10 9 9 8 9 9 9 8 8 8 8 8 7 5 6 8 8 6
-1 -2 -1 4 7 10 12 12 11 10 10 10 8 9 9 9 10 10 10 10 10 9 10 10 10 8 8 8 9 7 8 8 8 8 8 7 7 7 6 5 6 7 6
3 0 3 6 8 10 11 10 11 10 9 10 9 9 10 8 9 9 10 10 10 10 9 9 9 9 9 9 9 5 5 7 8 8 7 7 7 6 6 5 4 5 6
5 1 5 7 8 10 11 11 10 10 9 9 10 9 8 8 9 9 9 9 10 10 9 9 10 8 7 8 7 4 2 1 4 6 8 8 5 6 7 6 6 3 4
8 3 5 8 9 10 11 11 10 10 8 8 9 9 9 9 9 8 8 8 8 8 8 9 9 10 9 8 8 4 1 1 2 4 3 4 4 6 8 7 6 5 5
9 6 8 9 9 10 11 10 10 10 9 7 6 10 9 8 8 8 8 8 7 8 8 8 9 9 10 9 9 8 7 6 3 -1 -1 0 -0 6 8 7 5 6 7
7 9 9 9 10 9 9 9 10 9 9 6 9 10 9 8 8 8 8 8 7 8 8 8 8 9 9 9 8 7 8 8 6 -0 -1 -1 1 1 3 4 5 6 6
4 9 9 9 9 9 9 9 10 10 9 8 9 8 8 8 8 8 8 8 8 8 8 8 8 8 9 9 9 9 9 9 8 5 1 0 2 4 5 4 4 5 5
2 5 8 7 8 9 9 9 9 9 9 10 9 8 9 7 7 8 8 8 8 8 8 8 8 8 8 9 9 9 9 9 8 8 8 3 3 4 5 5 5 6 6
1 2 4 4 6 7 8 8 8 9 9 8 9 9 9 9 8 9 8 8 8 8 8 8 8 8 8 8 9 9 9 8 8 8 7 8 8 8 8 8 8 8 8
-0 -0 1 2 3 5 7 8 8 8 8 9 9 9 9 9 9 9 8 8 8 8 8 8 8 8 8 8 8 8 8 8 7 7 7 7 7 7 8 8 8 8 8
-1 -2 -1 0 1 1 3 5 6 7 7 8 8 8 9 9 9 9 9 9 9 8 8 8 8 8 8 8 8 7 8 8 8 8 8 8 8 8 8 8 8 7 8
-2 -2 -2 -2 -2 -1 0 2 4 5 5 7 7 6 7 8 8 8 8 8 8 8 8 8 8 8 8 8 8 8 8 8 8 7 7 7 7 8 8 8 8 8 8
-2 -2 -3 -3 -3 -2 -3 -3 -1 -0 1 2 3 2 4 6 6 6 6 7 7 7 7 7 7 7 7 7 7 7 7 7 7 7 7 7 7 7 7 7 7 7 7
-3 -3 -4 -2 -3 -3 -3 -3 -3 -4 -4 -3 -3 -3 -3 -2 -0 1 3 5 5 5 5 5 5 5 5 6 6 6 5 6 6 6 6 6 6 6 6 6 6 6 6
-3 -2 -3 -3 -2 -1 -3 -4 -3 -3 -3 -4 -4 -4 -3 -3 -2 -1 -1 -0 0 1 1 1 1 1 1 0 0 0 1 2 3 2 2 2 3 3 4 4 4 4 4
-2 -2 -2 -4 -4 -3 -2 -2 -4 -4 -3 -3 -4 -3 -4 -3 -2 -2 -2 -2 -1 -1 -1 -1 -2 -4 -4 -4 -3 -2 -0 0 0 0 0 -0 -1 -2 -1 -0 -0 1 1
-4 -5 -4 -5 -5 -5 -5 -5 -4 -4 -5 -5 -5 -5 -4 -4 -4 -3 -3 -3 -3 -4 -5 -6 -6 -6 -7 -6 -6 -6 -5 -4 -4 -5 -6 -6 -6 -6 -5 -4 -4 -4 -4
-6 -6 -6 -6 -6 -6 -6 -6 -5 -6 -6 -5 -6 -6 -6 -6 -6 -6 -7 -6 -6 -6 -7 -7 -7 -7 -7 -7 -7 -7 -7 -7 -7 -7 -7 -7 -7 -7 -7 -6 -6 -6 -6
-7 -7 -7 -7 -7 -7 -7 -7 -7 -7 -7 -7 -7 -8 -8 -8 -8 -8 -8 -8 -8 -8 -8 -8 -8 -7 -7 -7 -7 -7 -7 -7 -7 -7 -8 -8 -8 -8 -8 -8 -8 -7 -8
-6 -6 -8 -8 -8 -8 -7 -8 -8 -8 -8 -8 -8 -8 -8 -8 -8 -8 -8 -8 -8 -8 -8 -8 -8 -8 -8 -7 -7 -7 -7 -7 -8 -8 -8 -8 -8 -9 -9 -9 -9 -9 -9
-7 -7 -8 -7 -8 -8 -8 -8 -8 -8 -8 -8 -8 -8 -8 -9 -9 -9 -8 -8 -8 -8 -8 -8 -8 -8 -8 -8 -8 -8 -8 -8 -8 -9 -9 -10 -11 -13 -15 -17 -20 -23 -25

GFSMW_850_dewp_084.txt.gz
Dewpoint
-5 -6 -8 -11 -8 -4 7 11 12 12 12 13 8 4 2 4 5 11 11 11 11 10 11 11 11 10 9 9 9 10 10 9 9 7 7 7 7 5 6 6 7 7 6
-5 -5 -8 -9 -5 2 7 11 12 13 13 12 7 6 6 6 6 6 10 9 10 10 11 11 11 10 10 9 9 9 10 10 8 6 7 7 7 6 6 6 6 7 6
-5 -4 -5 -7 -1 4 9 11 13 13 13 12 10 9 10 10 11 11 10 9 9 10 10 10 10 11 10 10 9 10 9 8 9 7 7 8 8 6 6 6 6 6 6
-8 -5 -5 -7 1 3 10 12 13 13 13 12 11 9 7 7 8 9 10 10 10 10 10 10 10 10 8 10 10 10 8 8 9 7 6 5 5 6 7 6 6 6 6
-7 -6 -4 -6 3 4 9 11 13 13 12 12 11 10 8 8 8 9 10 10 10 10 10 11 10 9 9 10 10 10 9 8 8 7 7 5 6 5 5 7 7 7 7
-6 -6 -4 -5 2 6 9 11 13 13 12 12 11 10 10 10 9 10 10 11 10 9 10 9 9 10 10 9 10 10 8 7 9 8 6 7 6 6 7 7 7 6 7
7 8 6 -4 -4 6 9 11 12 12 12 12 12 11 10 10 10 10 11 11 9 9 9 8 8 9 10 9 9 9 8 8 8 7 7 8 7 6 7 8 7 7 7
6 7 8 4 -0 8 10 12 12 12 12 12 11 11 10 9 10 10 10 9 9 9 9 8 9 10 10 10 10 10 8 8 8 8 7 7 7 7 6 6 6 6 6
6 7 8 7 1 7 10 11 12 12 12 12 11 11 10 9 10 10 10 9 9 9 9 9 9 9 10 9 10 9 8 8 6 8 7 7 5 6 7 7 6 7 6
4 5 8 11 9 9 11 12 11 11 11 11 11 10 10 10 9 9 10 10 10 9 9 9 9 9 9 9 10 9 8 8 8 8 8 7 7 6 7 7 5 7 6
3 5 7 9 11 11 11 11 11 11 10 11 11 10 10 9 9 9 10 9 9 9 9 9 9 9 9 9 9 9 9 8 8 9 8 7 6 3 5 7 4 5 5
3 4 5 7 10 10 11 11 11 11 11 11 10 10 10 9 9 9 8 8 9 8 8 9 8 9 9 9 9 9 9 9 9 7 5 4 4 5 5 5 5 4 4
3 3 4 5 7 8 10 10 10 10 10 10 9 9 9 9 8 8 8 8 8 7 8 8 9 8 8 9 9 9 9 9 8 8 7 6 5 6 6 6 6 4 4
1 2 2 2 3 5 8 9 10 10 10 10 9 9 8 9 9 8 8 8 7 7 8 8 9 9 9 9 9 9 9 9 9 9 9 9 9 9 8 8 7 6 4
-1 -0 0 0 1 3 4 7 8 9 9 9 9 9 9 9 9 9 9 8 8 8 8 8 8 8 9 8 8 9 8 9 9 9 9 9 9 8 8 8 8 8 7
-1 -1 -1 -0 -0 -0 1 2 4 7 8 9 9 8 8 7 8 8 8 9 8 8 9 8 8 8 8 8 8 8 9 9 9 9 8 9 9 8 8 8 8 8 8
-2 -2 -2 -2 -2 -2 -1 -0 1 3 5 6 7 7 7 8 8 8 8 8 7 8 8 8 8 8 8 8 8 8 8 8 8 8 8 8 8 8 8 7 8 8 8
-3 -3 -3 -1 -2 -2 -2 -1 -0 1 2 2 3 3 5 5 5 6 7 6 7 7 7 7 7 7 7 8 8 8 8 7 7 7 7 7 7 7 7 6 6 6 6
-3 -3 -3 -3 -1 -1 -2 -2 -1 -0 -0 -0 -0 -0 1 1 2 3 3 4 4 5 4 3 4 4 5 5 6 6 6 6 6 5 5 5 5 5 5 5 4 3 3
-4 -4 -4 -3 -3 -2 -1 -1 -2 -1 -1 -2 -1 -1 -1 -0 -2 -1 -1 0 2 2 3 2 2 1 2 1 2 2 3 3 3 2 2 2 2 2 1 1 1 1 0
-4 -4 -4 -4 -4 -4 -3 -3 -3 -1 -2 -1 -2 -1 -2 -1 -1 -2 -3 -2 -1 -1 -1 -4 -5 -4 -3 -2 -1 -1 -0 -0 -0 -1 -3 -6 -6 -5 -4 -3 -2 -2 -2
-5 -5 -5 -5 -5 -5 -5 -5 -5 -5 -3 -2 -1 -2 -3 -4 -3 -3 -3 -3 -3 -4 -5 -5 -6 -6 -6 -6 -6 -5 -5 -5 -6 -7 -7 -7 -7 -7 -7 -7 -6 -6 -6
-5 -5 -6 -6 -6 -6 -5 -6 -6 -6 -6 -5 -5 -5 -5 -4 -4 -3 -4 -4 -5 -5 -6 -6 -6 -6 -6 -7 -7 -7 -7 -8 -8 -8 -8 -8 -8 -8 -8 -8 -8 -8 -8
-6 -6 -6 -6 -6 -6 -7 -6 -6 -7 -7 -6 -6 -6 -4 -4 -4 -4 -4 -4 -4 -4 -5 -5 -5 -5 -5 -6 -6 -7 -7 -7 -7 -8 -8 -8 -8 -9 -9 -9 -9 -9 -10
-7 -7 -8 -7 -7 -7 -7 -6 -7 -6 -7 -7 -8 -8 -8 -8 -7 -7 -7 -7 -7 -7 -7 -8 -8 -8 -8 -8 -8 -8 -8 -8 -8 -8 -9 -9 -10 -11 -12 -13 -16 -17 -17
-8 -9 -9 -9 -8 -7 -7 -7 -7 -7 -7 -7 -7 -7 -8 -9 -9 -9 -9 -9 -9 -9 -9 -9 -9 -8 -8 -8 -8 -9 -9 -9 -9 -10 -11 -14 -17 -19 -21 -23 -26 -29 -30